Time,TemperatureF,DewpointF,PressureIn,WindDirection,WindDirectionDegrees,WindSpeedMPH,WindSpeedGustMPH,Humidity,HourlyPrecipIn,Conditions,Clouds,dailyrainin,SoftwareType,DateUTC
2013-05-23 00:01:00,70.8,68.0,29.77,South,187,3.0,7.0,91,0.00,,,0.40,Wunderground v.1.15,2013-05-23 04:01:00,
2013-05-23 00:02:00,70.8,68.0,29.77,NNE,19,4.0,7.0,91,0.00,,,0.40,Wunderground v.1.15,2013-05-23 04:02:00,
2013-05-23 00:04:00,70.8,68.0,29.77,East,97,2.0,9.0,91,0.00,,,0.40,Wunderground v.1.15,2013-05-23 04:04:00,
2013-05-23 00:08:00,70.8,68.0,29.77,East,93,5.0,5.0,91,0.00,,,0.40,Wunderground v.1.15,2013-05-23 04:08:00,
2013-05-23 00:10:00,70.8,68.0,29.77,SW,217,0.0,5.0,91,0.00,,,0.40,Wunderground v.1.15,2013-05-23 04:10:00,
2013-05-23 00:11:00,70.7,67.9,29.77,SE,130,4.0,5.0,91,0.00,,,0.40,Wunderground v.1.15,2013-05-23 04:11:00,
2013-05-23 00:13:00,70.7,67.9,29.77,ESE,111,3.0,5.0,91,0.00,,,0.40,Wunderground v.1.15,2013-05-23 04:13:00,
2013-05-23 00:16:00,70.7,67.9,29.77,SE,126,2.0,5.0,91,0.00,,,0.40,Wunderground v.1.15,2013-05-23 04:16:00,
2013-05-23 00:18:00,70.7,67.9,29.77,SSW,207,2.0,3.0,91,0.00,,,0.40,Wunderground v.1.15,2013-05-23 04:18:00,
2013-05-23 00:20:00,70.7,67.9,29.77,SSW,196,6.0,6.0,91,0.00,,,0.40,Wunderground v.1.15,2013-05-23 04:20:00,
2013-05-23 00:24:00,70.6,67.8,29.78,SE,140,0.0,6.0,91,0.00,,,0.40,Wunderground v.1.15,2013-05-23 04:24:00,
2013-05-23 00:26:00,70.6,67.8,29.78,West,270,3.0,6.0,91,0.00,,,0.40,Wunderground v.1.15,2013-05-23 04:26:00,
2013-05-23 00:29:00,70.5,67.7,29.78,SSE,156,3.0,3.0,91,0.00,,,0.40,Wunderground v.1.15,2013-05-23 04:29:00,
2013-05-23 00:33:00,70.4,68.0,29.78,East,87,1.0,3.0,92,0.00,,,0.40,Wunderground v.1.15,2013-05-23 04:33:00,
2013-05-23 00:34:00,70.4,68.0,29.78,ESE,118,4.0,4.0,92,0.00,,,0.40,Wunderground v.1.15,2013-05-23 04:34:00,
2013-05-23 00:38:00,70.4,68.0,29.78,SSW,194,1.0,3.0,92,0.00,,,0.40,Wunderground v.1.15,2013-05-23 04:38:00,
2013-05-23 00:39:00,70.3,67.9,29.78,SSE,163,2.0,3.0,92,0.00,,,0.40,Wunderground v.1.15,2013-05-23 04:39:00,
2013-05-23 00:40:00,70.3,67.9,29.78,SE,144,3.0,3.0,92,0.00,,,0.40,Wunderground v.1.15,2013-05-23 04:40:00,
2013-05-23 00:41:00,70.3,67.9,29.78,ESE,117,1.0,3.0,92,0.00,,,0.40,Wunderground v.1.15,2013-05-23 04:41:00,
2013-05-23 00:44:00,70.2,67.8,29.78,SSE,156,2.0,4.0,92,0.00,,,0.40,Wunderground v.1.15,2013-05-23 04:44:00,
2013-05-23 00:45:00,70.2,67.8,29.78,East,91,2.0,4.0,92,0.00,,,0.40,Wunderground v.1.15,2013-05-23 04:45:00,
2013-05-23 00:46:00,70.2,67.8,29.78,SSW,202,4.0,4.0,92,0.00,,,0.40,Wunderground v.1.15,2013-05-23 04:46:00,
2013-05-23 00:47:00,70.2,67.8,29.78,SW,219,1.0,4.0,92,0.00,,,0.40,Wunderground v.1.15,2013-05-23 04:47:00,
2013-05-23 00:52:00,70.2,67.8,29.78,South,169,3.0,3.0,92,0.00,,,0.40,Wunderground v.1.15,2013-05-23 04:52:00,
2013-05-23 00:54:00,70.1,67.7,29.78,North,360,2.0,3.0,92,0.00,,,0.40,Wunderground v.1.15,2013-05-23 04:54:00,
2013-05-23 00:55:00,70.1,67.7,29.78,SSE,166,1.0,3.0,92,0.00,,,0.40,Wunderground v.1.15,2013-05-23 04:55:00,
2013-05-23 00:57:00,70.1,67.7,29.78,WSW,250,3.0,3.0,92,0.00,,,0.40,Wunderground v.1.15,2013-05-23 04:57:00,
2013-05-23 00:58:00,70.1,67.7,29.78,West,277,9.0,9.0,92,0.00,,,0.40,Wunderground v.1.15,2013-05-23 04:58:00,
2013-05-23 01:03:00,69.9,67.5,29.78,SSE,150,0.0,9.0,92,0.00,,,0.40,Wunderground v.1.15,2013-05-23 05:03:00,
2013-05-23 01:04:00,69.9,67.5,29.78,SW,217,4.0,9.0,92,0.00,,,0.40,Wunderground v.1.15,2013-05-23 05:04:00,
2013-05-23 01:08:00,69.8,67.4,29.78,NW,317,3.0,3.0,92,0.00,,,0.40,Wunderground v.1.15,2013-05-23 05:08:00,
2013-05-23 01:09:00,69.8,67.4,29.78,South,186,5.0,5.0,92,0.00,,,0.40,Wunderground v.1.15,2013-05-23 05:09:00,
2013-05-23 01:14:00,69.7,67.3,29.78,SE,131,0.0,5.0,92,0.00,,,0.40,Wunderground v.1.15,2013-05-23 05:14:00,
2013-05-23 01:17:00,69.6,67.2,29.79,SW,217,4.0,5.0,92,0.00,,,0.40,Wunderground v.1.15,2013-05-23 05:17:00,
2013-05-23 01:18:00,69.5,67.1,29.78,West,267,0.0,2.0,92,0.00,,,0.40,Wunderground v.1.15,2013-05-23 05:18:00,
2013-05-23 01:19:00,69.5,67.1,29.79,SE,132,2.0,2.0,92,0.00,,,0.40,Wunderground v.1.15,2013-05-23 05:19:00,
2013-05-23 01:20:00,69.5,67.1,29.79,South,181,0.0,2.0,92,0.00,,,0.40,Wunderground v.1.15,2013-05-23 05:20:00,
2013-05-23 01:25:00,69.2,66.8,29.78,SSE,158,1.0,3.0,92,0.00,,,0.40,Wunderground v.1.15,2013-05-23 05:25:00,
2013-05-23 01:26:00,69.2,66.8,29.78,West,281,2.0,3.0,92,0.00,,,0.40,Wunderground v.1.15,2013-05-23 05:26:00,
2013-05-23 01:27:00,69.1,66.7,29.79,NW,318,1.0,3.0,92,0.00,,,0.40,Wunderground v.1.15,2013-05-23 05:27:00,
2013-05-23 01:30:00,69.0,66.6,29.78,ESE,123,3.0,3.0,92,0.00,,,0.40,Wunderground v.1.15,2013-05-23 05:30:00,
2013-05-23 01:31:00,69.0,66.6,29.78,SSE,167,3.0,3.0,92,0.00,,,0.40,Wunderground v.1.15,2013-05-23 05:31:00,
2013-05-23 01:33:00,68.9,66.5,29.79,SW,232,1.0,3.0,92,0.00,,,0.40,Wunderground v.1.15,2013-05-23 05:33:00,
2013-05-23 01:34:00,68.9,66.5,29.79,SW,217,1.0,3.0,92,0.00,,,0.40,Wunderground v.1.15,2013-05-23 05:34:00,
2013-05-23 01:36:00,68.9,66.5,29.78,WNW,300,1.0,3.0,92,0.00,,,0.40,Wunderground v.1.15,2013-05-23 05:36:00,
2013-05-23 01:37:00,68.8,66.4,29.78,SSE,161,1.0,3.0,92,0.00,,,0.40,Wunderground v.1.15,2013-05-23 05:37:00,
2013-05-23 01:38:00,68.8,66.4,29.78,SSE,149,0.0,1.0,92,0.00,,,0.40,Wunderground v.1.15,2013-05-23 05:38:00,
2013-05-23 01:43:00,68.7,66.3,29.78,SSE,155,1.0,2.0,92,0.00,,,0.40,Wunderground v.1.15,2013-05-23 05:43:00,
2013-05-23 01:44:00,68.6,66.2,29.78,East,88,2.0,2.0,92,0.00,,,0.40,Wunderground v.1.15,2013-05-23 05:44:00,
2013-05-23 01:45:00,68.6,66.2,29.78,East,88,1.0,2.0,92,0.00,,,0.40,Wunderground v.1.15,2013-05-23 05:45:00,
2013-05-23 01:47:00,68.5,66.1,29.78,South,173,2.0,2.0,92,0.00,,,0.40,Wunderground v.1.15,2013-05-23 05:47:00,
2013-05-23 01:48:00,68.5,66.1,29.78,WSW,258,1.0,1.0,92,0.00,,,0.40,Wunderground v.1.15,2013-05-23 05:48:00,
2013-05-23 01:51:00,68.4,66.0,29.77,East,82,1.0,5.0,92,0.00,,,0.40,Wunderground v.1.15,2013-05-23 05:51:00,
2013-05-23 01:52:00,68.4,66.0,29.77,ENE,77,0.0,5.0,92,0.00,,,0.40,Wunderground v.1.15,2013-05-23 05:52:00,
2013-05-23 01:53:00,68.4,66.0,29.77,West,266,2.0,5.0,92,0.00,,,0.40,Wunderground v.1.15,2013-05-23 05:53:00,
2013-05-23 01:54:00,68.3,65.9,29.77,ESE,117,1.0,5.0,92,0.00,,,0.40,Wunderground v.1.15,2013-05-23 05:54:00,
2013-05-23 01:57:00,68.3,65.6,29.77,East,100,1.0,5.0,91,0.00,,,0.40,Wunderground v.1.15,2013-05-23 05:57:00,
2013-05-23 01:58:00,68.3,65.6,29.77,East,100,2.0,2.0,91,0.00,,,0.40,Wunderground v.1.15,2013-05-23 05:58:00,
2013-05-23 02:00:00,68.2,65.5,29.77,East,86,2.0,2.0,91,0.00,,,0.40,Wunderground v.1.15,2013-05-23 06:00:00,
2013-05-23 02:03:00,68.2,65.2,29.77,ESE,106,2.0,2.0,90,0.00,,,0.40,Wunderground v.1.15,2013-05-23 06:03:00,
2013-05-23 02:04:00,68.2,65.2,29.77,WNW,284,2.0,2.0,90,0.00,,,0.40,Wunderground v.1.15,2013-05-23 06:04:00,
2013-05-23 02:05:00,68.2,65.2,29.77,ESE,121,0.0,2.0,90,0.00,,,0.40,Wunderground v.1.15,2013-05-23 06:05:00,
2013-05-23 02:06:00,68.1,65.1,29.77,ESE,121,0.0,2.0,90,0.00,,,0.40,Wunderground v.1.15,2013-05-23 06:06:00,
2013-05-23 02:07:00,68.2,65.2,29.77,ESE,122,1.0,2.0,90,0.00,,,0.40,Wunderground v.1.15,2013-05-23 06:07:00,
2013-05-23 02:08:00,68.2,64.8,29.77,ENE,77,0.0,1.0,89,0.00,,,0.40,Wunderground v.1.15,2013-05-23 06:08:00,
2013-05-23 02:09:00,68.2,64.8,29.77,SE,133,0.0,1.0,89,0.00,,,0.40,Wunderground v.1.15,2013-05-23 06:09:00,
2013-05-23 02:12:00,68.2,64.8,29.77,SSE,153,0.0,1.0,89,0.00,,,0.40,Wunderground v.1.15,2013-05-23 06:12:00,
2013-05-23 02:13:00,68.1,64.7,29.77,SSE,150,0.0,4.0,89,0.00,,,0.40,Wunderground v.1.15,2013-05-23 06:13:00,
2013-05-23 02:14:00,68.1,64.7,29.77,SW,224,5.0,5.0,89,0.00,,,0.40,Wunderground v.1.15,2013-05-23 06:14:00,
2013-05-23 02:17:00,68.1,64.7,29.77,SSW,192,0.0,5.0,89,0.00,,,0.40,Wunderground v.1.15,2013-05-23 06:17:00,
2013-05-23 02:18:00,68.1,64.7,29.77,SSW,192,0.0,5.0,89,0.00,,,0.40,Wunderground v.1.15,2013-05-23 06:18:00,
2013-05-23 02:19:00,68.1,64.7,29.77,ESE,103,2.0,2.0,89,0.00,,,0.40,Wunderground v.1.15,2013-05-23 06:19:00,
2013-05-23 02:22:00,68.1,64.4,29.77,SSE,165,0.0,2.0,88,0.00,,,0.40,Wunderground v.1.15,2013-05-23 06:22:00,
2013-05-23 02:24:00,68.1,64.4,29.76,ESE,113,1.0,2.0,88,0.00,,,0.40,Wunderground v.1.15,2013-05-23 06:24:00,
2013-05-23 02:25:00,68.1,64.4,29.76,East,95,3.0,4.0,88,0.00,,,0.40,Wunderground v.1.15,2013-05-23 06:25:00,
2013-05-23 02:29:00,68.1,64.1,29.76,North,355,1.0,1.0,87,0.00,,,0.40,Wunderground v.1.15,2013-05-23 06:29:00,
2013-05-23 02:31:00,68.1,64.1,29.76,NNW,332,1.0,1.0,87,0.00,,,0.40,Wunderground v.1.15,2013-05-23 06:31:00,
2013-05-23 02:32:00,68.1,64.1,29.75,NNW,332,0.0,1.0,87,0.00,,,0.40,Wunderground v.1.15,2013-05-23 06:32:00,
2013-05-23 02:34:00,68.0,64.0,29.76,SE,142,1.0,3.0,87,0.00,,,0.40,Wunderground v.1.15,2013-05-23 06:34:00,
2013-05-23 02:36:00,68.0,64.0,29.76,WSW,255,0.0,3.0,87,0.00,,,0.40,Wunderground v.1.15,2013-05-23 06:36:00,
2013-05-23 02:37:00,68.0,64.0,29.76,WSW,255,0.0,3.0,87,0.00,,,0.40,Wunderground v.1.15,2013-05-23 06:37:00,
2013-05-23 02:39:00,67.9,63.9,29.76,ESE,111,2.0,2.0,87,0.00,,,0.40,Wunderground v.1.15,2013-05-23 06:39:00,
2013-05-23 02:41:00,67.9,63.9,29.76,ESE,111,0.0,2.0,87,0.00,,,0.40,Wunderground v.1.15,2013-05-23 06:41:00,
2013-05-23 02:42:00,67.8,63.8,29.76,ESE,111,0.0,2.0,87,0.00,,,0.40,Wunderground v.1.15,2013-05-23 06:42:00,
2013-05-23 02:43:00,67.8,63.8,29.76,ESE,119,0.0,2.0,87,0.00,,,0.40,Wunderground v.1.15,2013-05-23 06:43:00,
2013-05-23 02:45:00,67.7,63.7,29.76,ESE,121,0.0,2.0,87,0.00,,,0.40,Wunderground v.1.15,2013-05-23 06:45:00,
2013-05-23 02:47:00,67.7,63.4,29.76,SE,130,0.0,2.0,86,0.00,,,0.40,Wunderground v.1.15,2013-05-23 06:47:00,
2013-05-23 02:48:00,67.7,63.7,29.76,SE,130,0.0,2.0,87,0.00,,,0.40,Wunderground v.1.15,2013-05-23 06:48:00,
2013-05-23 02:49:00,67.7,63.7,29.76,SE,130,0.0,0.0,87,0.00,,,0.40,Wunderground v.1.15,2013-05-23 06:49:00,
2013-05-23 02:50:00,67.7,63.7,29.75,SE,130,1.0,1.0,87,0.00,,,0.40,Wunderground v.1.15,2013-05-23 06:50:00,
2013-05-23 02:53:00,67.6,63.3,29.75,NNW,333,0.0,2.0,86,0.00,,,0.40,Wunderground v.1.15,2013-05-23 06:53:00,
2013-05-23 02:54:00,67.6,63.3,29.75,NNW,333,0.0,2.0,86,0.00,,,0.40,Wunderground v.1.15,2013-05-23 06:54:00,
2013-05-23 02:56:00,67.5,63.2,29.75,SSW,193,0.0,2.0,86,0.00,,,0.40,Wunderground v.1.15,2013-05-23 06:56:00,
2013-05-23 02:57:00,67.5,62.8,29.75,SE,142,0.0,3.0,85,0.00,,,0.40,Wunderground v.1.15,2013-05-23 06:57:00,
2013-05-23 02:58:00,67.5,62.8,29.75,SE,142,0.0,0.0,85,0.00,,,0.40,Wunderground v.1.15,2013-05-23 06:58:00,
2013-05-23 02:59:00,67.6,62.9,29.75,SE,142,0.0,0.0,85,0.00,,,0.40,Wunderground v.1.15,2013-05-23 06:59:00,
2013-05-23 03:02:00,67.6,63.3,29.75,SE,142,0.0,0.0,86,0.00,,,0.40,Wunderground v.1.15,2013-05-23 07:02:00,
2013-05-23 03:03:00,67.6,63.3,29.75,SE,142,0.0,0.0,86,0.00,,,0.40,Wunderground v.1.15,2013-05-23 07:03:00,
2013-05-23 03:05:00,67.6,63.3,29.75,SE,142,0.0,1.0,86,0.00,,,0.40,Wunderground v.1.15,2013-05-23 07:05:00,
2013-05-23 03:06:00,67.6,62.9,29.75,SE,142,0.0,1.0,85,0.00,,,0.40,Wunderground v.1.15,2013-05-23 07:06:00,
2013-05-23 03:07:00,67.6,62.9,29.75,SE,142,0.0,1.0,85,0.00,,,0.40,Wunderground v.1.15,2013-05-23 07:07:00,
2013-05-23 03:08:00,67.6,62.9,29.75,SE,142,0.0,0.0,85,0.00,,,0.40,Wunderground v.1.15,2013-05-23 07:08:00,
2013-05-23 03:10:00,67.5,62.8,29.75,SE,143,0.0,1.0,85,0.00,,,0.40,Wunderground v.1.15,2013-05-23 07:10:00,
2013-05-23 03:11:00,67.5,62.8,29.75,SE,143,0.0,1.0,85,0.00,,,0.40,Wunderground v.1.15,2013-05-23 07:11:00,
2013-05-23 03:13:00,67.4,62.7,29.75,SE,143,0.0,1.0,85,0.00,,,0.40,Wunderground v.1.15,2013-05-23 07:13:00,
2013-05-23 03:16:00,67.4,62.7,29.75,SE,143,0.0,1.0,85,0.00,,,0.40,Wunderground v.1.15,2013-05-23 07:16:00,
2013-05-23 03:19:00,67.4,62.7,29.75,SE,143,0.0,0.0,85,0.00,,,0.40,Wunderground v.1.15,2013-05-23 07:19:00,
2013-05-23 03:20:00,67.3,62.6,29.75,SE,143,0.0,0.0,85,0.00,,,0.40,Wunderground v.1.15,2013-05-23 07:20:00,
2013-05-23 03:21:00,67.3,62.6,29.75,SE,143,0.0,0.0,85,0.00,,,0.40,Wunderground v.1.15,2013-05-23 07:21:00,
2013-05-23 03:24:00,67.2,62.9,29.75,SE,143,0.0,0.0,86,0.00,,,0.40,Wunderground v.1.15,2013-05-23 07:24:00,
2013-05-23 03:25:00,67.2,62.9,29.75,SE,143,0.0,0.0,86,0.00,,,0.40,Wunderground v.1.15,2013-05-23 07:25:00,
2013-05-23 03:26:00,67.2,62.9,29.75,SE,143,0.0,0.0,86,0.00,,,0.40,Wunderground v.1.15,2013-05-23 07:26:00,
2013-05-23 03:27:00,67.1,62.8,29.75,SE,143,0.0,1.0,86,0.00,,,0.40,Wunderground v.1.15,2013-05-23 07:27:00,
2013-05-23 03:30:00,67.0,62.7,29.75,SE,143,0.0,0.0,86,0.00,,,0.40,Wunderground v.1.15,2013-05-23 07:30:00,
2013-05-23 03:31:00,66.9,62.6,29.75,SE,143,0.0,0.0,86,0.00,,,0.40,Wunderground v.1.15,2013-05-23 07:31:00,
2013-05-23 03:34:00,66.8,62.5,29.75,SE,143,0.0,0.0,86,0.00,,,0.40,Wunderground v.1.15,2013-05-23 07:34:00,
2013-05-23 03:35:00,66.7,62.4,29.76,SE,143,0.0,0.0,86,0.00,,,0.40,Wunderground v.1.15,2013-05-23 07:35:00,
2013-05-23 03:37:00,66.6,62.6,29.76,SE,143,0.0,0.0,87,0.00,,,0.40,Wunderground v.1.15,2013-05-23 07:37:00,
2013-05-23 03:38:00,66.6,62.6,29.76,SE,143,0.0,0.0,87,0.00,,,0.40,Wunderground v.1.15,2013-05-23 07:38:00,
2013-05-23 03:40:00,66.4,62.4,29.76,SE,143,0.0,0.0,87,0.00,,,0.40,Wunderground v.1.15,2013-05-23 07:40:00,
2013-05-23 03:41:00,66.3,62.6,29.76,SE,143,0.0,0.0,88,0.00,,,0.40,Wunderground v.1.15,2013-05-23 07:41:00,
2013-05-23 03:43:00,66.1,62.4,29.76,SE,143,0.0,0.0,88,0.00,,,0.40,Wunderground v.1.15,2013-05-23 07:43:00,
2013-05-23 03:44:00,66.0,62.3,29.76,SE,143,0.0,0.0,88,0.00,,,0.40,Wunderground v.1.15,2013-05-23 07:44:00,
2013-05-23 03:45:00,65.8,62.1,29.76,SE,143,0.0,0.0,88,0.00,,,0.40,Wunderground v.1.15,2013-05-23 07:45:00,
2013-05-23 03:46:00,65.8,62.1,29.76,SE,143,0.0,0.0,88,0.00,,,0.40,Wunderground v.1.15,2013-05-23 07:46:00,
2013-05-23 03:47:00,65.6,62.3,29.76,SE,143,0.0,0.0,89,0.00,,,0.40,Wunderground v.1.15,2013-05-23 07:47:00,
2013-05-23 03:49:00,65.4,62.1,29.76,SE,143,0.0,0.0,89,0.00,,,0.40,Wunderground v.1.15,2013-05-23 07:49:00,
2013-05-23 03:50:00,65.2,61.9,29.76,SE,143,0.0,0.0,89,0.00,,,0.40,Wunderground v.1.15,2013-05-23 07:50:00,
2013-05-23 03:51:00,65.1,61.8,29.76,SE,143,0.0,0.0,89,0.00,,,0.40,Wunderground v.1.15,2013-05-23 07:51:00,
2013-05-23 03:53:00,64.8,61.8,29.76,SE,143,0.0,0.0,90,0.00,,,0.40,Wunderground v.1.15,2013-05-23 07:53:00,
2013-05-23 03:54:00,64.7,61.7,29.76,SE,143,0.0,0.0,90,0.00,,,0.40,Wunderground v.1.15,2013-05-23 07:54:00,
2013-05-23 03:57:00,64.5,61.8,29.76,SE,143,0.0,0.0,91,0.00,,,0.40,Wunderground v.1.15,2013-05-23 07:57:00,
2013-05-23 03:58:00,64.4,61.7,29.76,SE,143,0.0,0.0,91,0.00,,,0.40,Wunderground v.1.15,2013-05-23 07:58:00,
2013-05-23 04:01:00,64.1,61.4,29.76,SE,143,0.0,0.0,91,0.00,,,0.40,Wunderground v.1.15,2013-05-23 08:01:00,
2013-05-23 04:03:00,64.1,61.7,29.76,SE,143,0.0,1.0,92,0.00,,,0.40,Wunderground v.1.15,2013-05-23 08:03:00,
2013-05-23 04:05:00,64.0,61.6,29.76,ESE,115,0.0,1.0,92,0.00,,,0.40,Wunderground v.1.15,2013-05-23 08:05:00,
2013-05-23 04:08:00,63.9,61.5,29.76,ESE,115,0.0,0.0,92,0.00,,,0.40,Wunderground v.1.15,2013-05-23 08:08:00,
2013-05-23 04:09:00,63.8,61.4,29.76,ESE,115,0.0,0.0,92,0.00,,,0.40,Wunderground v.1.15,2013-05-23 08:09:00,
2013-05-23 04:10:00,63.8,61.7,29.76,ESE,115,0.0,1.0,93,0.00,,,0.40,Wunderground v.1.15,2013-05-23 08:10:00,
2013-05-23 04:11:00,63.8,61.7,29.76,ESE,115,0.0,1.0,93,0.00,,,0.40,Wunderground v.1.15,2013-05-23 08:11:00,
2013-05-23 04:13:00,63.9,61.5,29.76,ESE,115,0.0,2.0,92,0.00,,,0.40,Wunderground v.1.15,2013-05-23 08:13:00,
2013-05-23 04:14:00,63.9,61.5,29.76,ESE,115,0.0,2.0,92,0.00,,,0.40,Wunderground v.1.15,2013-05-23 08:14:00,
2013-05-23 04:15:00,63.9,61.5,29.76,ESE,115,0.0,2.0,92,0.00,,,0.40,Wunderground v.1.15,2013-05-23 08:15:00,
2013-05-23 04:16:00,64.0,61.6,29.76,ESE,115,0.0,2.0,92,0.00,,,0.40,Wunderground v.1.15,2013-05-23 08:16:00,
2013-05-23 04:18:00,64.0,61.6,29.76,North,350,1.0,2.0,92,0.00,,,0.40,Wunderground v.1.15,2013-05-23 08:18:00,
2013-05-23 04:20:00,64.1,61.4,29.76,North,350,1.0,1.0,91,0.00,,,0.40,Wunderground v.1.15,2013-05-23 08:20:00,
2013-05-23 04:21:00,64.1,61.4,29.76,North,351,0.0,1.0,91,0.00,,,0.40,Wunderground v.1.15,2013-05-23 08:21:00,
2013-05-23 04:22:00,64.1,61.4,29.76,NNW,346,3.0,3.0,91,0.00,,,0.40,Wunderground v.1.15,2013-05-23 08:22:00,
2013-05-23 04:25:00,64.4,61.4,29.76,NW,321,1.0,3.0,90,0.00,,,0.40,Wunderground v.1.15,2013-05-23 08:25:00,
2013-05-23 04:26:00,64.4,61.4,29.77,NW,321,0.0,3.0,90,0.00,,,0.40,Wunderground v.1.15,2013-05-23 08:26:00,
2013-05-23 04:27:00,64.5,61.5,29.77,NW,321,0.0,3.0,90,0.00,,,0.40,Wunderground v.1.15,2013-05-23 08:27:00,
2013-05-23 04:31:00,64.7,61.4,29.76,NW,321,1.0,1.0,89,0.00,,,0.40,Wunderground v.1.15,2013-05-23 08:31:00,
2013-05-23 04:32:00,64.7,61.4,29.76,NW,321,0.0,1.0,89,0.00,,,0.40,Wunderground v.1.15,2013-05-23 08:32:00,
2013-05-23 04:33:00,64.7,61.4,29.76,NW,321,0.0,1.0,89,0.00,,,0.40,Wunderground v.1.15,2013-05-23 08:33:00,
2013-05-23 04:36:00,64.7,61.1,29.76,South,173,0.0,3.0,88,0.00,,,0.40,Wunderground v.1.15,2013-05-23 08:36:00,
2013-05-23 04:37:00,64.8,61.2,29.76,South,173,0.0,3.0,88,0.00,,,0.40,Wunderground v.1.15,2013-05-23 08:37:00,
2013-05-23 04:38:00,64.8,61.2,29.76,South,173,0.0,3.0,88,0.00,,,0.40,Wunderground v.1.15,2013-05-23 08:38:00,
2013-05-23 04:39:00,64.8,61.2,29.76,South,173,0.0,0.0,88,0.00,,,0.40,Wunderground v.1.15,2013-05-23 08:39:00,
2013-05-23 04:41:00,64.8,61.2,29.76,East,91,0.0,2.0,88,0.00,,,0.40,Wunderground v.1.15,2013-05-23 08:41:00,
2013-05-23 04:42:00,64.8,61.2,29.76,ENE,66,2.0,2.0,88,0.00,,,0.40,Wunderground v.1.15,2013-05-23 08:42:00,
2013-05-23 04:43:00,64.8,61.2,29.76,ESE,121,0.0,2.0,88,0.00,,,0.40,Wunderground v.1.15,2013-05-23 08:43:00,
2013-05-23 04:44:00,64.8,61.2,29.77,WNW,288,3.0,3.0,88,0.00,,,0.40,Wunderground v.1.15,2013-05-23 08:44:00,
2013-05-23 04:46:00,64.8,60.8,29.77,SW,235,1.0,3.0,87,0.00,,,0.40,Wunderground v.1.15,2013-05-23 08:46:00,
2013-05-23 04:49:00,64.8,60.8,29.77,NNW,334,1.0,3.0,87,0.00,,,0.40,Wunderground v.1.15,2013-05-23 08:49:00,
2013-05-23 04:50:00,64.8,60.8,29.77,NNW,334,1.0,3.0,87,0.00,,,0.40,Wunderground v.1.15,2013-05-23 08:50:00,
2013-05-23 04:51:00,64.8,60.8,29.76,South,175,1.0,3.0,87,0.00,,,0.40,Wunderground v.1.15,2013-05-23 08:51:00,
2013-05-23 04:55:00,64.9,60.9,29.77,West,261,2.0,4.0,87,0.00,,,0.40,Wunderground v.1.15,2013-05-23 08:55:00,
2013-05-23 04:56:00,64.9,60.9,29.77,ENE,78,2.0,4.0,87,0.00,,,0.40,Wunderground v.1.15,2013-05-23 08:56:00,
2013-05-23 04:57:00,65.0,61.0,29.77,SW,232,1.0,4.0,87,0.00,,,0.40,Wunderground v.1.15,2013-05-23 08:57:00,
2013-05-23 04:59:00,65.1,60.8,29.77,SSE,161,2.0,4.0,86,0.00,,,0.40,Wunderground v.1.15,2013-05-23 08:59:00,
2013-05-23 05:00:00,65.1,60.8,29.77,SSE,161,2.0,4.0,86,0.00,,,0.40,Wunderground v.1.15,2013-05-23 09:00:00,
2013-05-23 05:01:00,65.2,60.9,29.77,WSW,249,1.0,4.0,86,0.00,,,0.40,Wunderground v.1.15,2013-05-23 09:01:00,
2013-05-23 05:02:00,65.2,60.6,29.77,WSW,249,0.0,4.0,85,0.00,,,0.40,Wunderground v.1.15,2013-05-23 09:02:00,
2013-05-23 05:03:00,65.3,60.7,29.77,SSW,210,1.0,4.0,85,0.00,,,0.40,Wunderground v.1.15,2013-05-23 09:03:00,
2013-05-23 05:05:00,65.3,61.0,29.78,SSE,162,2.0,4.0,86,0.00,,,0.40,Wunderground v.1.15,2013-05-23 09:05:00,
2013-05-23 05:07:00,65.3,60.7,29.78,SSW,201,2.0,4.0,85,0.00,,,0.40,Wunderground v.1.15,2013-05-23 09:07:00,
2013-05-23 05:09:00,65.3,61.0,29.78,SSE,149,3.0,3.0,86,0.00,,,0.40,Wunderground v.1.15,2013-05-23 09:09:00,
2013-05-23 05:10:00,65.3,61.0,29.77,SSE,149,0.0,3.0,86,0.00,,,0.40,Wunderground v.1.15,2013-05-23 09:10:00,
2013-05-23 05:12:00,65.3,60.7,29.77,SSW,200,1.0,4.0,85,0.00,,,0.40,Wunderground v.1.15,2013-05-23 09:12:00,
2013-05-23 05:13:00,65.2,60.6,29.77,SW,232,2.0,4.0,85,0.00,,,0.40,Wunderground v.1.15,2013-05-23 09:13:00,
2013-05-23 05:15:00,65.1,60.5,29.77,South,180,1.0,4.0,85,0.00,,,0.40,Wunderground v.1.15,2013-05-23 09:15:00,
2013-05-23 05:16:00,65.1,60.8,29.77,East,84,1.0,4.0,86,0.00,,,0.40,Wunderground v.1.15,2013-05-23 09:16:00,
2013-05-23 05:18:00,65.0,60.7,29.77,East,85,0.0,4.0,86,0.00,,,0.40,Wunderground v.1.15,2013-05-23 09:18:00,
2013-05-23 05:19:00,64.9,60.6,29.77,SSW,200,0.0,3.0,86,0.00,,,0.40,Wunderground v.1.15,2013-05-23 09:19:00,
2013-05-23 05:20:00,64.9,60.6,29.77,SE,128,1.0,3.0,86,0.00,,,0.40,Wunderground v.1.15,2013-05-23 09:20:00,
2013-05-23 05:21:00,64.9,60.6,29.77,ESE,106,2.0,3.0,86,0.00,,,0.40,Wunderground v.1.15,2013-05-23 09:21:00,
2013-05-23 05:24:00,64.9,60.6,29.77,SSE,162,1.0,3.0,86,0.00,,,0.40,Wunderground v.1.15,2013-05-23 09:24:00,
2013-05-23 05:25:00,64.8,60.5,29.77,SSE,162,1.0,3.0,86,0.00,,,0.40,Wunderground v.1.15,2013-05-23 09:25:00,
2013-05-23 05:27:00,64.8,60.5,29.77,SSE,162,0.0,3.0,86,0.00,,,0.40,Wunderground v.1.15,2013-05-23 09:27:00,
2013-05-23 05:28:00,64.8,60.5,29.78,SSE,150,1.0,1.0,86,0.00,,,0.40,Wunderground v.1.15,2013-05-23 09:28:00,
2013-05-23 05:30:00,64.8,60.5,29.77,SW,227,1.0,3.0,86,0.00,,,0.40,Wunderground v.1.15,2013-05-23 09:30:00,
2013-05-23 05:31:00,64.8,60.5,29.78,SSE,150,0.0,3.0,86,0.00,,,0.40,Wunderground v.1.15,2013-05-23 09:31:00,
2013-05-23 05:32:00,64.8,60.5,29.77,SSW,212,0.0,5.0,86,0.00,,,0.40,Wunderground v.1.15,2013-05-23 09:32:00,
2013-05-23 05:35:00,64.8,60.5,29.78,SSW,192,2.0,5.0,86,0.00,,,0.40,Wunderground v.1.15,2013-05-23 09:35:00,
2013-05-23 05:36:00,64.8,60.5,29.78,West,272,3.0,5.0,86,0.00,,,0.40,Wunderground v.1.15,2013-05-23 09:36:00,
2013-05-23 05:37:00,64.8,60.5,29.78,West,273,1.0,5.0,86,0.00,,,0.40,Wunderground v.1.15,2013-05-23 09:37:00,
2013-05-23 05:41:00,64.9,60.6,29.78,SSE,152,1.0,4.0,86,0.00,,,0.40,Wunderground v.1.15,2013-05-23 09:41:00,
2013-05-23 05:42:00,64.9,60.6,29.78,West,270,3.0,4.0,86,0.00,,,0.40,Wunderground v.1.15,2013-05-23 09:42:00,
2013-05-23 05:43:00,64.9,60.6,29.78,SE,134,3.0,4.0,86,0.00,,,0.40,Wunderground v.1.15,2013-05-23 09:43:00,
2013-05-23 05:44:00,64.9,60.6,29.78,SSE,150,0.0,4.0,86,0.00,,,0.40,Wunderground v.1.15,2013-05-23 09:44:00,
2013-05-23 05:47:00,65.0,60.7,29.78,SSW,204,0.0,5.0,86,0.00,,,0.40,Wunderground v.1.15,2013-05-23 09:47:00,
2013-05-23 05:48:00,65.0,60.7,29.78,South,191,1.0,2.0,86,0.00,,,0.40,Wunderground v.1.15,2013-05-23 09:48:00,
2013-05-23 05:49:00,65.0,60.7,29.78,SSE,158,0.0,4.0,86,0.00,,,0.40,Wunderground v.1.15,2013-05-23 09:49:00,
2013-05-23 05:52:00,65.0,60.7,29.78,SE,124,3.0,6.0,86,0.00,,,0.40,Wunderground v.1.15,2013-05-23 09:52:00,
2013-05-23 05:54:00,65.0,60.7,29.78,SSW,212,2.0,6.0,86,0.00,,,0.40,Wunderground v.1.15,2013-05-23 09:54:00,
2013-05-23 05:55:00,65.0,60.7,29.78,SSW,212,0.0,6.0,86,0.00,,,0.40,Wunderground v.1.15,2013-05-23 09:55:00,
2013-05-23 05:57:00,65.1,61.1,29.78,ESE,121,7.0,7.0,87,0.00,,,0.40,Wunderground v.1.15,2013-05-23 09:57:00,
2013-05-23 05:59:00,65.1,61.1,29.78,SSE,157,0.0,2.0,87,0.00,,,0.40,Wunderground v.1.15,2013-05-23 09:59:00,
2013-05-23 06:00:00,65.2,61.2,29.78,SE,139,0.0,2.0,87,0.00,,,0.40,Wunderground v.1.15,2013-05-23 10:00:00,
2013-05-23 06:02:00,65.2,61.2,29.78,WNW,286,1.0,4.0,87,0.00,,,0.40,Wunderground v.1.15,2013-05-23 10:02:00,
2013-05-23 06:05:00,65.2,61.2,29.78,West,273,1.0,4.0,87,0.00,,,0.40,Wunderground v.1.15,2013-05-23 10:05:00,
2013-05-23 06:06:00,65.3,61.3,29.78,WSW,255,1.0,4.0,87,0.00,,,0.40,Wunderground v.1.15,2013-05-23 10:06:00,
2013-05-23 06:08:00,65.3,61.3,29.78,NNW,339,1.0,2.0,87,0.00,,,0.40,Wunderground v.1.15,2013-05-23 10:08:00,
2013-05-23 06:10:00,65.4,61.4,29.78,WNW,283,0.0,2.0,87,0.00,,,0.40,Wunderground v.1.15,2013-05-23 10:10:00,
2013-05-23 06:11:00,65.4,61.4,29.79,WNW,289,3.0,3.0,87,0.00,,,0.40,Wunderground v.1.15,2013-05-23 10:11:00,
2013-05-23 06:13:00,65.4,61.4,29.78,NE,44,6.0,6.0,87,0.00,,,0.40,Wunderground v.1.15,2013-05-23 10:13:00,
2013-05-23 06:15:00,65.6,61.6,29.78,SE,130,1.0,6.0,87,0.00,,,0.40,Wunderground v.1.15,2013-05-23 10:15:00,
2013-05-23 06:17:00,65.6,61.6,29.78,WNW,300,0.0,6.0,87,0.00,,,0.40,Wunderground v.1.15,2013-05-23 10:17:00,
2013-05-23 06:18:00,65.7,61.7,29.78,SW,218,1.0,2.0,87,0.00,,,0.40,Wunderground v.1.15,2013-05-23 10:18:00,
2013-05-23 06:21:00,65.7,61.7,29.78,NNE,15,0.0,5.0,87,0.00,,,0.40,Wunderground v.1.15,2013-05-23 10:21:00,
2013-05-23 06:22:00,65.8,61.8,29.78,SE,135,1.0,5.0,87,0.00,,,0.40,Wunderground v.1.15,2013-05-23 10:22:00,
2013-05-23 06:23:00,65.8,61.8,29.78,ENE,76,2.0,5.0,87,0.00,,,0.40,Wunderground v.1.15,2013-05-23 10:23:00,
2013-05-23 06:24:00,65.8,61.8,29.78,NNW,338,2.0,5.0,87,0.00,,,0.40,Wunderground v.1.15,2013-05-23 10:24:00,
2013-05-23 06:26:00,66.0,62.0,29.79,SSW,193,5.0,5.0,87,0.00,,,0.40,Wunderground v.1.15,2013-05-23 10:26:00,
2013-05-23 06:28:00,66.1,62.1,29.79,SSE,162,3.0,5.0,87,0.00,,,0.40,Wunderground v.1.15,2013-05-23 10:28:00,
2013-05-23 06:29:00,66.1,62.1,29.79,SW,219,5.0,6.0,87,0.00,,,0.40,Wunderground v.1.15,2013-05-23 10:29:00,
2013-05-23 06:30:00,66.2,62.2,29.79,SW,226,7.0,7.0,87,0.00,,,0.40,Wunderground v.1.15,2013-05-23 10:30:00,
2013-05-23 06:33:00,66.4,62.4,29.79,SSE,163,2.0,7.0,87,0.00,,,0.40,Wunderground v.1.15,2013-05-23 10:33:00,
2013-05-23 06:34:00,66.4,62.4,29.79,ENE,64,2.0,7.0,87,0.00,,,0.40,Wunderground v.1.15,2013-05-23 10:34:00,
2013-05-23 06:35:00,66.4,62.4,29.79,SW,214,6.0,7.0,87,0.00,,,0.40,Wunderground v.1.15,2013-05-23 10:35:00,
2013-05-23 06:37:00,66.4,62.4,29.80,SSE,161,5.0,7.0,87,0.00,,,0.40,Wunderground v.1.15,2013-05-23 10:37:00,
2013-05-23 06:39:00,66.5,62.5,29.80,West,277,1.0,3.0,87,0.00,,,0.40,Wunderground v.1.15,2013-05-23 10:39:00,
2013-05-23 06:40:00,66.5,62.5,29.79,ENE,68,1.0,6.0,87,0.00,,,0.40,Wunderground v.1.15,2013-05-23 10:40:00,
2013-05-23 06:41:00,66.5,62.8,29.79,NNE,30,1.0,6.0,88,0.00,,,0.40,Wunderground v.1.15,2013-05-23 10:41:00,
2013-05-23 06:43:00,66.5,62.8,29.79,SE,143,2.0,6.0,88,0.00,,,0.40,Wunderground v.1.15,2013-05-23 10:43:00,
2013-05-23 06:44:00,66.5,62.8,29.79,WNW,294,5.0,6.0,88,0.00,,,0.40,Wunderground v.1.15,2013-05-23 10:44:00,
2013-05-23 06:45:00,66.5,62.8,29.79,ESE,113,1.0,6.0,88,0.00,,,0.40,Wunderground v.1.15,2013-05-23 10:45:00,
2013-05-23 06:47:00,66.5,62.8,29.79,ESE,109,3.0,6.0,88,0.00,,,0.40,Wunderground v.1.15,2013-05-23 10:47:00,
2013-05-23 06:50:00,66.6,62.9,29.79,SSW,207,5.0,5.0,88,0.00,,,0.40,Wunderground v.1.15,2013-05-23 10:50:00,
2013-05-23 06:51:00,66.6,62.9,29.79,SSE,152,0.0,5.0,88,0.00,,,0.40,Wunderground v.1.15,2013-05-23 10:51:00,
2013-05-23 06:52:00,66.6,62.9,29.79,South,169,2.0,5.0,88,0.00,,,0.40,Wunderground v.1.15,2013-05-23 10:52:00,
2013-05-23 06:56:00,66.6,62.9,29.79,SE,135,2.0,5.0,88,0.00,,,0.40,Wunderground v.1.15,2013-05-23 10:56:00,
2013-05-23 06:57:00,66.6,62.9,29.79,ENE,78,2.0,5.0,88,0.00,,,0.40,Wunderground v.1.15,2013-05-23 10:57:00,
2013-05-23 06:58:00,66.6,62.9,29.79,ESE,113,0.0,2.0,88,0.00,,,0.40,Wunderground v.1.15,2013-05-23 10:58:00,
2013-05-23 06:59:00,66.6,62.9,29.79,ESE,113,1.0,2.0,88,0.00,,,0.40,Wunderground v.1.15,2013-05-23 10:59:00,
2013-05-23 07:03:00,66.8,63.1,29.80,South,171,3.0,8.0,88,0.00,,,0.40,Wunderground v.1.15,2013-05-23 11:03:00,
2013-05-23 07:04:00,66.8,63.1,29.80,SSE,159,0.0,8.0,88,0.00,,,0.40,Wunderground v.1.15,2013-05-23 11:04:00,
2013-05-23 07:06:00,67.0,63.3,29.80,East,99,3.0,8.0,88,0.00,,,0.40,Wunderground v.1.15,2013-05-23 11:06:00,
2013-05-23 07:09:00,67.1,63.1,29.80,East,92,1.0,4.0,87,0.00,,,0.40,Wunderground v.1.15,2013-05-23 11:09:00,
2013-05-23 07:11:00,67.2,63.5,29.79,NNE,32,1.0,5.0,88,0.00,,,0.40,Wunderground v.1.15,2013-05-23 11:11:00,
2013-05-23 07:15:00,67.4,63.7,29.80,SSE,168,4.0,5.0,88,0.00,,,0.40,Wunderground v.1.15,2013-05-23 11:15:00,
2013-05-23 07:17:00,67.6,63.9,29.80,SE,145,0.0,6.0,88,0.00,,,0.40,Wunderground v.1.15,2013-05-23 11:17:00,
2013-05-23 07:20:00,67.7,64.0,29.80,SSE,154,3.0,5.0,88,0.00,,,0.40,Wunderground v.1.15,2013-05-23 11:20:00,
2013-05-23 07:21:00,67.8,63.8,29.80,ESE,111,1.0,5.0,87,0.00,,,0.40,Wunderground v.1.15,2013-05-23 11:21:00,
2013-05-23 07:24:00,68.0,64.3,29.80,SE,132,3.0,5.0,88,0.00,,,0.40,Wunderground v.1.15,2013-05-23 11:24:00,
2013-05-23 07:25:00,68.1,64.4,29.80,ENE,75,4.0,5.0,88,0.00,,,0.40,Wunderground v.1.15,2013-05-23 11:25:00,
2013-05-23 07:26:00,68.1,64.4,29.80,ESE,107,2.0,5.0,88,0.00,,,0.40,Wunderground v.1.15,2013-05-23 11:26:00,
2013-05-23 07:27:00,68.1,64.1,29.80,NE,56,2.0,5.0,87,0.00,,,0.40,Wunderground v.1.15,2013-05-23 11:27:00,
2013-05-23 07:28:00,68.1,64.1,29.80,WSW,238,3.0,3.0,87,0.00,,,0.40,Wunderground v.1.15,2013-05-23 11:28:00,
2013-05-23 07:30:00,68.1,64.4,29.80,NW,323,6.0,6.0,88,0.00,,,0.40,Wunderground v.1.15,2013-05-23 11:30:00,
2013-05-23 07:31:00,68.1,64.1,29.80,South,169,2.0,6.0,87,0.00,,,0.40,Wunderground v.1.15,2013-05-23 11:31:00,
2013-05-23 07:32:00,68.1,64.1,29.80,East,83,3.0,6.0,87,0.00,,,0.40,Wunderground v.1.15,2013-05-23 11:32:00,
2013-05-23 07:33:00,68.1,64.1,29.80,East,87,1.0,7.0,87,0.00,,,0.40,Wunderground v.1.15,2013-05-23 11:33:00,
2013-05-23 07:35:00,68.2,64.2,29.80,NW,311,5.0,7.0,87,0.00,,,0.40,Wunderground v.1.15,2013-05-23 11:35:00,
2013-05-23 07:37:00,68.2,64.2,29.80,SSE,161,0.0,7.0,87,0.00,,,0.40,Wunderground v.1.15,2013-05-23 11:37:00,
2013-05-23 07:39:00,68.3,64.3,29.80,SSW,194,2.0,3.0,87,0.00,,,0.40,Wunderground v.1.15,2013-05-23 11:39:00,
2013-05-23 07:41:00,68.4,64.0,29.80,West,277,8.0,8.0,86,0.00,,,0.40,Wunderground v.1.15,2013-05-23 11:41:00,
2013-05-23 07:42:00,68.4,64.0,29.80,SE,138,2.0,9.0,86,0.00,,,0.40,Wunderground v.1.15,2013-05-23 11:42:00,
2013-05-23 07:43:00,68.5,64.1,29.80,SSW,196,3.0,9.0,86,0.00,,,0.40,Wunderground v.1.15,2013-05-23 11:43:00,
2013-05-23 07:44:00,68.5,64.1,29.80,SSE,155,4.0,9.0,86,0.00,,,0.40,Wunderground v.1.15,2013-05-23 11:44:00,
2013-05-23 07:46:00,68.7,64.3,29.80,SSW,192,4.0,9.0,86,0.00,,,0.40,Wunderground v.1.15,2013-05-23 11:46:00,
2013-05-23 07:48:00,68.8,64.4,29.80,NNW,332,4.0,9.0,86,0.00,,,0.40,Wunderground v.1.15,2013-05-23 11:48:00,
2013-05-23 07:49:00,69.0,64.3,29.80,South,181,2.0,5.0,85,0.00,,,0.40,Wunderground v.1.15,2013-05-23 11:49:00,
2013-05-23 07:52:00,69.1,64.4,29.80,SW,221,2.0,9.0,85,0.00,,,0.40,Wunderground v.1.15,2013-05-23 11:52:00,
2013-05-23 07:53:00,69.1,64.4,29.80,SSW,194,4.0,9.0,85,0.00,,,0.40,Wunderground v.1.15,2013-05-23 11:53:00,
2013-05-23 07:54:00,69.1,64.4,29.80,East,97,1.0,9.0,85,0.00,,,0.40,Wunderground v.1.15,2013-05-23 11:54:00,
2013-05-23 07:57:00,69.0,64.3,29.80,SE,136,1.0,9.0,85,0.00,,,0.40,Wunderground v.1.15,2013-05-23 11:57:00,
2013-05-23 07:59:00,69.0,64.3,29.80,NNW,343,5.0,5.0,85,0.00,,,0.40,Wunderground v.1.15,2013-05-23 11:59:00,
2013-05-23 08:00:00,68.9,64.2,29.80,East,88,2.0,5.0,85,0.00,,,0.40,Wunderground v.1.15,2013-05-23 12:00:00,
2013-05-23 08:03:00,68.9,64.5,29.79,SSE,160,1.0,5.0,86,0.00,,,0.40,Wunderground v.1.15,2013-05-23 12:03:00,
2013-05-23 08:04:00,68.9,64.5,29.80,South,177,5.0,5.0,86,0.00,,,0.40,Wunderground v.1.15,2013-05-23 12:04:00,
2013-05-23 08:05:00,68.9,64.5,29.80,SSE,148,1.0,5.0,86,0.00,,,0.40,Wunderground v.1.15,2013-05-23 12:05:00,
2013-05-23 08:09:00,69.0,64.6,29.80,South,178,4.0,4.0,86,0.00,,,0.40,Wunderground v.1.15,2013-05-23 12:09:00,
2013-05-23 08:10:00,69.1,64.4,29.79,ESE,109,2.0,4.0,85,0.00,,,0.40,Wunderground v.1.15,2013-05-23 12:10:00,
2013-05-23 08:11:00,69.1,64.7,29.80,SSE,157,3.0,4.0,86,0.00,,,0.40,Wunderground v.1.15,2013-05-23 12:11:00,
2013-05-23 08:15:00,69.2,64.8,29.80,South,181,4.0,6.0,86,0.00,,,0.40,Wunderground v.1.15,2013-05-23 12:15:00,
2013-05-23 08:16:00,69.3,64.6,29.80,SSE,153,5.0,6.0,85,0.00,,,0.40,Wunderground v.1.15,2013-05-23 12:16:00,
2013-05-23 08:18:00,69.3,64.9,29.79,SW,227,4.0,4.0,86,0.00,,,0.40,Wunderground v.1.15,2013-05-23 12:18:00,
2013-05-23 08:21:00,69.4,64.7,29.80,NW,311,4.0,7.0,85,0.00,,,0.40,Wunderground v.1.15,2013-05-23 12:21:00,
2013-05-23 08:22:00,69.4,65.0,29.80,ESE,115,3.0,7.0,86,0.00,,,0.40,Wunderground v.1.15,2013-05-23 12:22:00,
2013-05-23 08:25:00,69.4,64.7,29.80,East,92,2.0,7.0,85,0.00,,,0.40,Wunderground v.1.15,2013-05-23 12:25:00,
2013-05-23 08:26:00,69.5,64.8,29.80,North,351,2.0,7.0,85,0.00,,,0.40,Wunderground v.1.15,2013-05-23 12:26:00,
2013-05-23 08:27:00,69.5,64.8,29.80,WNW,302,4.0,7.0,85,0.00,,,0.40,Wunderground v.1.15,2013-05-23 12:27:00,
2013-05-23 08:32:00,69.5,64.8,29.80,SE,139,2.0,5.0,85,0.00,,,0.40,Wunderground v.1.15,2013-05-23 12:32:00,
2013-05-23 08:33:00,69.6,64.9,29.80,SE,138,1.0,5.0,85,0.00,,,0.40,Wunderground v.1.15,2013-05-23 12:33:00,
2013-05-23 08:34:00,69.6,64.9,29.80,East,94,2.0,5.0,85,0.00,,,0.40,Wunderground v.1.15,2013-05-23 12:34:00,
2013-05-23 08:38:00,69.6,64.9,29.80,South,175,1.0,2.0,85,0.00,,,0.40,Wunderground v.1.15,2013-05-23 12:38:00,
2013-05-23 08:39:00,69.6,65.2,29.80,East,98,1.0,2.0,86,0.00,,,0.40,Wunderground v.1.15,2013-05-23 12:39:00,
2013-05-23 08:40:00,69.5,64.8,29.80,ESE,111,2.0,3.0,85,0.00,,,0.40,Wunderground v.1.15,2013-05-23 12:40:00,
2013-05-23 08:44:00,69.5,65.1,29.80,NW,321,2.0,5.0,86,0.00,,,0.40,Wunderground v.1.15,2013-05-23 12:44:00,
2013-05-23 08:45:00,69.5,65.1,29.80,NW,308,2.0,5.0,86,0.00,,,0.40,Wunderground v.1.15,2013-05-23 12:45:00,
2013-05-23 08:46:00,69.5,65.1,29.80,NW,309,1.0,5.0,86,0.00,,,0.40,Wunderground v.1.15,2013-05-23 12:46:00,
2013-05-23 08:47:00,69.5,64.8,29.80,NW,311,1.0,5.0,85,0.00,,,0.40,Wunderground v.1.15,2013-05-23 12:47:00,
2013-05-23 08:50:00,69.6,64.9,29.80,SSW,208,0.0,3.0,85,0.00,,,0.40,Wunderground v.1.15,2013-05-23 12:50:00,
2013-05-23 08:51:00,69.6,65.2,29.80,SSE,157,3.0,5.0,86,0.00,,,0.40,Wunderground v.1.15,2013-05-23 12:51:00,
2013-05-23 08:52:00,69.7,65.0,29.80,SE,130,4.0,5.0,85,0.00,,,0.40,Wunderground v.1.15,2013-05-23 12:52:00,
2013-05-23 08:57:00,70.0,64.9,29.80,West,266,4.0,7.0,84,0.00,,,0.40,Wunderground v.1.15,2013-05-23 12:57:00,
2013-05-23 08:58:00,70.1,65.4,29.80,WSW,254,1.0,7.0,85,0.00,,,0.40,Wunderground v.1.15,2013-05-23 12:58:00,
2013-05-23 08:59:00,70.2,65.1,29.80,SW,218,1.0,5.0,84,0.00,,,0.40,Wunderground v.1.15,2013-05-23 12:59:00,
2013-05-23 09:03:00,70.4,65.3,29.80,WSW,240,1.0,5.0,84,0.00,,,0.40,Wunderground v.1.15,2013-05-23 13:03:00,
2013-05-23 09:05:00,70.6,65.5,29.80,WNW,286,3.0,5.0,84,0.00,,,0.40,Wunderground v.1.15,2013-05-23 13:05:00,
2013-05-23 09:06:00,70.8,65.7,29.80,ESE,116,1.0,5.0,84,0.00,,,0.40,Wunderground v.1.15,2013-05-23 13:06:00,
2013-05-23 09:08:00,70.9,65.8,29.80,WSW,239,1.0,1.0,84,0.00,,,0.40,Wunderground v.1.15,2013-05-23 13:08:00,
2013-05-23 09:09:00,71.0,65.9,29.80,SSW,210,2.0,2.0,84,0.00,,,0.40,Wunderground v.1.15,2013-05-23 13:09:00,
2013-05-23 09:10:00,71.0,65.6,29.79,South,175,1.0,8.0,83,0.00,,,0.40,Wunderground v.1.15,2013-05-23 13:10:00,
2013-05-23 09:11:00,71.1,65.7,29.80,NW,325,4.0,8.0,83,0.00,,,0.40,Wunderground v.1.15,2013-05-23 13:11:00,
2013-05-23 09:12:00,71.2,65.4,29.80,SSW,209,1.0,8.0,82,0.00,,,0.40,Wunderground v.1.15,2013-05-23 13:12:00,
2013-05-23 09:14:00,71.2,65.4,29.80,West,268,5.0,8.0,82,0.00,,,0.40,Wunderground v.1.15,2013-05-23 13:14:00,
2013-05-23 09:16:00,71.1,65.0,29.80,South,169,4.0,8.0,81,0.00,,,0.40,Wunderground v.1.15,2013-05-23 13:16:00,
2013-05-23 09:18:00,71.1,65.3,29.79,SSW,212,1.0,3.0,82,0.00,,,0.40,Wunderground v.1.15,2013-05-23 13:18:00,
2013-05-23 09:21:00,71.2,65.8,29.80,South,172,6.0,6.0,83,0.00,,,0.40,Wunderground v.1.15,2013-05-23 13:21:00,
2013-05-23 09:22:00,71.2,65.4,29.80,South,187,4.0,6.0,82,0.00,,,0.40,Wunderground v.1.15,2013-05-23 13:22:00,
2013-05-23 09:25:00,71.3,65.9,29.79,East,88,2.0,6.0,83,0.00,,,0.40,Wunderground v.1.15,2013-05-23 13:25:00,
2013-05-23 09:27:00,71.4,65.6,29.80,SSE,167,1.0,7.0,82,0.00,,,0.40,Wunderground v.1.15,2013-05-23 13:27:00,
2013-05-23 09:28:00,71.4,66.0,29.79,ESE,120,3.0,4.0,83,0.00,,,0.40,Wunderground v.1.15,2013-05-23 13:28:00,
2013-05-23 09:30:00,71.3,65.5,29.79,ENE,75,2.0,4.0,82,0.00,,,0.40,Wunderground v.1.15,2013-05-23 13:30:00,
2013-05-23 09:31:00,71.3,65.5,29.79,ESE,104,2.0,4.0,82,0.00,,,0.40,Wunderground v.1.15,2013-05-23 13:31:00,
2013-05-23 09:32:00,71.3,65.5,29.79,WSW,254,2.0,4.0,82,0.00,,,0.40,Wunderground v.1.15,2013-05-23 13:32:00,
2013-05-23 09:33:00,71.3,65.5,29.79,WNW,294,6.0,6.0,82,0.00,,,0.40,Wunderground v.1.15,2013-05-23 13:33:00,
2013-05-23 09:35:00,71.2,65.8,29.79,NNE,26,0.0,6.0,83,0.00,,,0.40,Wunderground v.1.15,2013-05-23 13:35:00,
2013-05-23 09:37:00,71.1,65.3,29.79,SE,136,2.0,7.0,82,0.00,,,0.40,Wunderground v.1.15,2013-05-23 13:37:00,
2013-05-23 09:39:00,71.2,65.8,29.79,SSW,211,0.0,2.0,83,0.00,,,0.40,Wunderground v.1.15,2013-05-23 13:39:00,
2013-05-23 09:40:00,71.2,65.4,29.79,SSW,212,3.0,3.0,82,0.00,,,0.40,Wunderground v.1.15,2013-05-23 13:40:00,
2013-05-23 09:42:00,71.2,65.8,29.79,South,180,0.0,3.0,83,0.00,,,0.40,Wunderground v.1.15,2013-05-23 13:42:00,
2013-05-23 09:44:00,71.3,66.2,29.79,South,178,0.0,3.0,84,0.00,,,0.40,Wunderground v.1.15,2013-05-23 13:44:00,
2013-05-23 09:45:00,71.4,66.0,29.79,SW,217,3.0,6.0,83,0.00,,,0.40,Wunderground v.1.15,2013-05-23 13:45:00,
2013-05-23 09:46:00,71.4,65.6,29.79,South,173,1.0,6.0,82,0.00,,,0.40,Wunderground v.1.15,2013-05-23 13:46:00,
2013-05-23 09:48:00,71.6,66.2,29.79,South,178,2.0,2.0,83,0.00,,,0.40,Wunderground v.1.15,2013-05-23 13:48:00,
2013-05-23 09:50:00,71.7,66.3,29.79,SE,130,1.0,2.0,83,0.00,,,0.40,Wunderground v.1.15,2013-05-23 13:50:00,
2013-05-23 09:53:00,72.0,67.2,29.79,ESE,110,0.0,2.0,85,0.00,,,0.40,Wunderground v.1.15,2013-05-23 13:53:00,
2013-05-23 09:54:00,72.2,67.1,29.79,East,100,2.0,4.0,84,0.00,,,0.40,Wunderground v.1.15,2013-05-23 13:54:00,
2013-05-23 09:55:00,72.3,66.5,29.79,SSE,157,1.0,6.0,82,0.00,,,0.40,Wunderground v.1.15,2013-05-23 13:55:00,
2013-05-23 09:59:00,72.8,66.6,29.79,East,89,1.0,5.0,81,0.00,,,0.40,Wunderground v.1.15,2013-05-23 13:59:00,
2013-05-23 10:00:00,72.9,66.4,29.79,SW,216,3.0,7.0,80,0.00,,,0.40,Wunderground v.1.15,2013-05-23 14:00:00,
2013-05-23 10:01:00,73.0,66.5,29.79,ESE,106,8.0,8.0,80,0.00,,,0.40,Wunderground v.1.15,2013-05-23 14:01:00,
2013-05-23 10:02:00,73.0,66.1,29.79,SSE,167,2.0,8.0,79,0.00,,,0.40,Wunderground v.1.15,2013-05-23 14:02:00,
2013-05-23 10:03:00,73.0,66.1,29.79,SSW,212,9.0,9.0,79,0.00,,,0.40,Wunderground v.1.15,2013-05-23 14:03:00,
2013-05-23 10:06:00,72.9,65.6,29.79,SSE,151,0.0,9.0,78,0.00,,,0.40,Wunderground v.1.15,2013-05-23 14:06:00,
2013-05-23 10:07:00,72.9,65.6,29.79,SW,234,3.0,9.0,78,0.00,,,0.40,Wunderground v.1.15,2013-05-23 14:07:00,
2013-05-23 10:08:00,72.9,65.3,29.79,SE,128,3.0,9.0,77,0.00,,,0.40,Wunderground v.1.15,2013-05-23 14:08:00,
2013-05-23 10:09:00,72.8,65.5,29.79,WSW,256,3.0,4.0,78,0.00,,,0.40,Wunderground v.1.15,2013-05-23 14:09:00,
2013-05-23 10:12:00,72.7,65.8,29.79,SSE,168,1.0,4.0,79,0.00,,,0.40,Wunderground v.1.15,2013-05-23 14:12:00,
2013-05-23 10:14:00,72.6,65.3,29.79,SE,146,1.0,4.0,78,0.00,,,0.40,Wunderground v.1.15,2013-05-23 14:14:00,
2013-05-23 10:16:00,72.6,65.3,29.79,South,185,4.0,5.0,78,0.00,,,0.40,Wunderground v.1.15,2013-05-23 14:16:00,
2013-05-23 10:17:00,72.6,65.3,29.79,SW,217,2.0,6.0,78,0.00,,,0.40,Wunderground v.1.15,2013-05-23 14:17:00,
2013-05-23 10:19:00,72.6,65.3,29.79,NNW,329,1.0,3.0,78,0.00,,,0.40,Wunderground v.1.15,2013-05-23 14:19:00,
2013-05-23 10:22:00,72.5,65.2,29.79,East,93,1.0,4.0,78,0.00,,,0.40,Wunderground v.1.15,2013-05-23 14:22:00,
2013-05-23 10:24:00,72.4,65.2,29.79,SSE,157,1.0,4.0,78,0.00,,,0.40,Wunderground v.1.15,2013-05-23 14:24:00,
2013-05-23 10:25:00,72.3,65.1,29.78,East,89,2.0,4.0,78,0.00,,,0.40,Wunderground v.1.15,2013-05-23 14:25:00,
2013-05-23 10:26:00,72.3,65.1,29.79,SE,127,0.0,4.0,78,0.00,,,0.40,Wunderground v.1.15,2013-05-23 14:26:00,
2013-05-23 10:28:00,72.1,64.9,29.78,SSW,196,5.0,5.0,78,0.00,,,0.40,Wunderground v.1.15,2013-05-23 14:28:00,
2013-05-23 10:29:00,72.0,64.8,29.78,SW,229,2.0,2.0,78,0.00,,,0.40,Wunderground v.1.15,2013-05-23 14:29:00,
2013-05-23 10:30:00,71.9,64.7,29.79,WSW,251,2.0,2.0,78,0.00,,,0.40,Wunderground v.1.15,2013-05-23 14:30:00,
2013-05-23 10:34:00,71.6,64.7,29.79,NW,305,2.0,4.0,79,0.00,,,0.40,Wunderground v.1.15,2013-05-23 14:34:00,
2013-05-23 10:35:00,71.5,65.0,29.78,SSE,153,3.0,4.0,80,0.00,,,0.40,Wunderground v.1.15,2013-05-23 14:35:00,
2013-05-23 10:36:00,71.4,64.9,29.79,ESE,110,1.0,4.0,80,0.00,,,0.40,Wunderground v.1.15,2013-05-23 14:36:00,
2013-05-23 10:37:00,71.4,64.9,29.78,SE,134,3.0,4.0,80,0.00,,,0.40,Wunderground v.1.15,2013-05-23 14:37:00,
2013-05-23 10:39:00,71.2,64.7,29.79,SE,146,0.0,3.0,80,0.00,,,0.40,Wunderground v.1.15,2013-05-23 14:39:00,
2013-05-23 10:40:00,71.1,65.0,29.79,SE,125,1.0,3.0,81,0.00,,,0.40,Wunderground v.1.15,2013-05-23 14:40:00,
2013-05-23 10:41:00,71.0,64.5,29.79,ESE,109,3.0,5.0,80,0.00,,,0.40,Wunderground v.1.15,2013-05-23 14:41:00,
2013-05-23 10:43:00,70.8,64.3,29.79,NNE,17,4.0,5.0,80,0.00,,,0.40,Wunderground v.1.15,2013-05-23 14:43:00,
2013-05-23 10:45:00,70.7,64.6,29.79,WSW,240,4.0,7.0,81,0.00,,,0.40,Wunderground v.1.15,2013-05-23 14:45:00,
2013-05-23 10:46:00,70.6,64.8,29.79,WSW,238,0.0,7.0,82,0.00,,,0.40,Wunderground v.1.15,2013-05-23 14:46:00,
2013-05-23 10:47:00,70.5,64.7,29.79,West,265,1.0,7.0,82,0.00,,,0.40,Wunderground v.1.15,2013-05-23 14:47:00,
2013-05-23 10:50:00,70.3,64.5,29.79,South,184,1.0,2.0,82,0.00,,,0.40,Wunderground v.1.15,2013-05-23 14:50:00,
2013-05-23 10:51:00,70.2,64.4,29.79,WSW,240,2.0,3.0,82,0.00,,,0.40,Wunderground v.1.15,2013-05-23 14:51:00,
2013-05-23 10:53:00,70.2,64.8,29.79,SE,141,2.0,3.0,83,0.00,,,0.40,Wunderground v.1.15,2013-05-23 14:53:00,
2013-05-23 10:54:00,70.1,64.7,29.79,SSW,213,1.0,3.0,83,0.00,,,0.40,Wunderground v.1.15,2013-05-23 14:54:00,
2013-05-23 10:55:00,70.1,64.7,29.80,SSW,211,0.0,3.0,83,0.00,,,0.40,Wunderground v.1.15,2013-05-23 14:55:00,
2013-05-23 10:57:00,70.0,64.9,29.80,SSW,211,0.0,3.0,84,0.00,,,0.40,Wunderground v.1.15,2013-05-23 14:57:00,
2013-05-23 10:58:00,69.9,64.8,29.80,SE,138,1.0,4.0,84,0.00,,,0.40,Wunderground v.1.15,2013-05-23 14:58:00,
2013-05-23 10:59:00,69.9,64.8,29.80,SSW,192,1.0,4.0,84,0.00,,,0.40,Wunderground v.1.15,2013-05-23 14:59:00,
2013-05-23 11:01:00,69.8,64.7,29.80,South,176,2.0,6.0,84,0.00,,,0.40,Wunderground v.1.15,2013-05-23 15:01:00,
2013-05-23 11:02:00,69.8,64.7,29.80,WNW,282,4.0,6.0,84,0.00,,,0.40,Wunderground v.1.15,2013-05-23 15:02:00,
2013-05-23 11:04:00,69.7,64.6,29.80,WNW,284,2.0,6.0,84,0.00,,,0.00,Wunderground v.1.15,2013-05-23 15:04:00,
2013-05-23 11:06:00,69.6,64.9,29.80,South,175,2.0,6.0,85,0.00,,,0.00,Wunderground v.1.15,2013-05-23 15:06:00,
2013-05-23 11:09:00,69.6,64.9,29.80,ESE,121,2.0,2.0,85,0.00,,,0.00,Wunderground v.1.15,2013-05-23 15:09:00,
2013-05-23 11:10:00,69.6,64.9,29.80,SE,146,0.0,2.0,85,0.00,,,0.00,Wunderground v.1.15,2013-05-23 15:10:00,
2013-05-23 11:11:00,69.5,64.8,29.79,SE,146,0.0,2.0,85,0.00,,,0.00,Wunderground v.1.15,2013-05-23 15:11:00,
2013-05-23 11:12:00,69.5,65.1,29.79,ESE,115,1.0,2.0,86,0.00,,,0.00,Wunderground v.1.15,2013-05-23 15:12:00,
2013-05-23 11:15:00,69.5,65.1,29.80,SSW,205,0.0,2.0,86,0.00,,,0.00,Wunderground v.1.15,2013-05-23 15:15:00,
2013-05-23 11:16:00,69.5,65.1,29.80,SSW,206,0.0,2.0,86,0.00,,,0.00,Wunderground v.1.15,2013-05-23 15:16:00,
2013-05-23 11:18:00,69.5,65.1,29.80,SSW,199,0.0,2.0,86,0.00,,,0.00,Wunderground v.1.15,2013-05-23 15:18:00,
2013-05-23 11:21:00,69.5,65.5,29.80,SSE,165,2.0,4.0,87,0.00,,,0.00,Wunderground v.1.15,2013-05-23 15:21:00,
2013-05-23 11:22:00,69.5,65.5,29.80,SSE,165,1.0,4.0,87,0.00,,,0.00,Wunderground v.1.15,2013-05-23 15:22:00,
2013-05-23 11:23:00,69.5,65.5,29.80,SE,143,2.0,4.0,87,0.00,,,0.00,Wunderground v.1.15,2013-05-23 15:23:00,
2013-05-23 11:24:00,69.5,65.5,29.80,NE,49,3.0,4.0,87,0.00,,,0.00,Wunderground v.1.15,2013-05-23 15:24:00,
2013-05-23 11:27:00,69.5,65.5,29.80,SE,140,0.0,4.0,87,0.00,,,0.00,Wunderground v.1.15,2013-05-23 15:27:00,
2013-05-23 11:28:00,69.5,65.5,29.80,SSE,150,1.0,1.0,87,0.00,,,0.00,Wunderground v.1.15,2013-05-23 15:28:00,
2013-05-23 11:29:00,69.5,65.5,29.80,SE,139,1.0,2.0,87,0.00,,,0.00,Wunderground v.1.15,2013-05-23 15:29:00,
2013-05-23 11:32:00,69.6,65.6,29.80,ESE,105,2.0,3.0,87,0.00,,,0.00,Wunderground v.1.15,2013-05-23 15:32:00,
2013-05-23 11:33:00,69.6,65.6,29.80,WSW,252,4.0,5.0,87,0.00,,,0.00,Wunderground v.1.15,2013-05-23 15:33:00,
2013-05-23 11:34:00,69.6,65.6,29.80,West,271,1.0,5.0,87,0.00,,,0.00,Wunderground v.1.15,2013-05-23 15:34:00,
2013-05-23 11:36:00,69.6,65.6,29.80,South,180,1.0,5.0,87,0.00,,,0.00,Wunderground v.1.15,2013-05-23 15:36:00,
2013-05-23 11:38:00,69.6,65.6,29.80,WSW,252,0.0,2.0,87,0.00,,,0.00,Wunderground v.1.15,2013-05-23 15:38:00,
2013-05-23 11:39:00,69.6,65.6,29.80,WSW,257,1.0,2.0,87,0.00,,,0.00,Wunderground v.1.15,2013-05-23 15:39:00,
2013-05-23 11:40:00,69.7,65.7,29.80,ENE,77,1.0,3.0,87,0.00,,,0.00,Wunderground v.1.15,2013-05-23 15:40:00,
2013-05-23 11:41:00,69.7,65.7,29.80,WSW,244,0.0,3.0,87,0.00,,,0.00,Wunderground v.1.15,2013-05-23 15:41:00,
2013-05-23 11:43:00,69.8,65.8,29.80,WSW,244,1.0,3.0,87,0.00,,,0.00,Wunderground v.1.15,2013-05-23 15:43:00,
2013-05-23 11:45:00,69.8,65.4,29.80,ENE,75,0.0,3.0,86,0.00,,,0.00,Wunderground v.1.15,2013-05-23 15:45:00,
2013-05-23 11:46:00,69.8,65.4,29.80,SE,139,2.0,3.0,86,0.00,,,0.00,Wunderground v.1.15,2013-05-23 15:46:00,
2013-05-23 11:47:00,69.9,65.5,29.80,SE,126,1.0,3.0,86,0.00,,,0.00,Wunderground v.1.15,2013-05-23 15:47:00,
2013-05-23 11:49:00,70.0,65.6,29.80,East,100,1.0,4.0,86,0.00,,,0.00,Wunderground v.1.15,2013-05-23 15:49:00,
2013-05-23 11:51:00,70.0,65.6,29.80,SE,132,2.0,5.0,86,0.00,,,0.00,Wunderground v.1.15,2013-05-23 15:51:00,
2013-05-23 11:52:00,70.0,65.3,29.80,ENE,65,3.0,5.0,85,0.00,,,0.00,Wunderground v.1.15,2013-05-23 15:52:00,
2013-05-23 11:57:00,70.1,65.7,29.80,SW,216,1.0,6.0,86,0.00,,,0.00,Wunderground v.1.15,2013-05-23 15:57:00,
2013-05-23 11:58:00,70.1,65.7,29.80,South,184,5.0,8.0,86,0.00,,,0.00,Wunderground v.1.15,2013-05-23 15:58:00,
2013-05-23 12:01:00,70.1,65.7,29.80,SSE,162,1.0,5.0,86,0.00,,,0.00,Wunderground v.1.15,2013-05-23 16:01:00,
2013-05-23 12:02:00,70.0,65.6,29.80,SSE,155,0.0,5.0,86,0.00,,,0.00,Wunderground v.1.15,2013-05-23 16:02:00,
2013-05-23 12:04:00,70.0,65.6,29.80,WNW,294,3.0,5.0,86,0.00,,,0.00,Wunderground v.1.15,2013-05-23 16:04:00,
2013-05-23 12:07:00,69.9,65.5,29.80,SE,146,2.0,5.0,86,0.00,,,0.00,Wunderground v.1.15,2013-05-23 16:07:00,
2013-05-23 12:09:00,69.7,65.3,29.80,SE,130,0.0,3.0,86,0.00,,,0.00,Wunderground v.1.15,2013-05-23 16:09:00,
2013-05-23 12:10:00,69.7,65.3,29.80,West,277,7.0,7.0,86,0.00,,,0.00,Wunderground v.1.15,2013-05-23 16:10:00,
2013-05-23 12:11:00,69.7,65.3,29.80,SW,223,1.0,7.0,86,0.00,,,0.00,Wunderground v.1.15,2013-05-23 16:11:00,
2013-05-23 12:13:00,69.6,65.2,29.80,SW,229,1.0,7.0,86,0.00,,,0.00,Wunderground v.1.15,2013-05-23 16:13:00,
2013-05-23 12:14:00,69.5,65.1,29.80,SSE,167,1.0,7.0,86,0.00,,,0.00,Wunderground v.1.15,2013-05-23 16:14:00,
2013-05-23 12:15:00,69.5,65.5,29.80,SSE,167,0.0,7.0,87,0.00,,,0.00,Wunderground v.1.15,2013-05-23 16:15:00,
2013-05-23 12:16:00,69.5,65.5,29.80,SW,234,1.0,7.0,87,0.00,,,0.00,Wunderground v.1.15,2013-05-23 16:16:00,
2013-05-23 12:19:00,69.4,65.4,29.80,West,273,1.0,2.0,87,0.00,,,0.00,Wunderground v.1.15,2013-05-23 16:19:00,
2013-05-23 12:20:00,69.4,65.0,29.80,West,262,6.0,6.0,86,0.00,,,0.00,Wunderground v.1.15,2013-05-23 16:20:00,
2013-05-23 12:21:00,69.3,64.9,29.80,West,281,4.0,6.0,86,0.00,,,0.00,Wunderground v.1.15,2013-05-23 16:21:00,
2013-05-23 12:22:00,69.2,65.2,29.80,SW,214,2.0,6.0,87,0.00,,,0.00,Wunderground v.1.15,2013-05-23 16:22:00,
2013-05-23 12:25:00,69.1,65.1,29.80,West,260,2.0,6.0,87,0.00,,,0.00,Wunderground v.1.15,2013-05-23 16:25:00,
2013-05-23 12:26:00,69.0,64.6,29.80,SE,136,0.0,6.0,86,0.00,,,0.00,Wunderground v.1.15,2013-05-23 16:26:00,
2013-05-23 12:27:00,69.0,64.6,29.80,SE,133,0.0,6.0,86,0.00,,,0.00,Wunderground v.1.15,2013-05-23 16:27:00,
2013-05-23 12:30:00,68.9,64.9,29.80,East,94,2.0,3.0,87,0.00,,,0.00,Wunderground v.1.15,2013-05-23 16:30:00,
2013-05-23 12:31:00,68.9,64.9,29.80,ENE,58,4.0,4.0,87,0.00,,,0.00,Wunderground v.1.15,2013-05-23 16:31:00,
2013-05-23 12:33:00,68.8,64.8,29.80,NW,319,2.0,4.0,87,0.00,,,0.00,Wunderground v.1.15,2013-05-23 16:33:00,
2013-05-23 12:35:00,68.7,64.7,29.80,NNW,327,1.0,4.0,87,0.00,,,0.00,Wunderground v.1.15,2013-05-23 16:35:00,
2013-05-23 12:36:00,68.6,64.6,29.80,WSW,252,0.0,4.0,87,0.00,,,0.00,Wunderground v.1.15,2013-05-23 16:36:00,
2013-05-23 12:37:00,68.6,64.6,29.79,SSE,148,3.0,4.0,87,0.00,,,0.00,Wunderground v.1.15,2013-05-23 16:37:00,
2013-05-23 12:38:00,68.5,64.5,29.79,ESE,109,1.0,3.0,87,0.00,,,0.00,Wunderground v.1.15,2013-05-23 16:38:00,
2013-05-23 12:40:00,68.5,64.8,29.79,ESE,109,0.0,3.0,88,0.00,,,0.00,Wunderground v.1.15,2013-05-23 16:40:00,
2013-05-23 12:43:00,68.5,64.8,29.79,ESE,111,2.0,3.0,88,0.00,,,0.00,Wunderground v.1.15,2013-05-23 16:43:00,
2013-05-23 12:45:00,68.4,64.7,29.79,WSW,250,2.0,3.0,88,0.00,,,0.00,Wunderground v.1.15,2013-05-23 16:45:00,
2013-05-23 12:46:00,68.4,65.0,29.79,SSE,155,1.0,3.0,89,0.00,,,0.00,Wunderground v.1.15,2013-05-23 16:46:00,
2013-05-23 12:48:00,68.4,65.0,29.79,WSW,248,1.0,3.0,89,0.00,,,0.00,Wunderground v.1.15,2013-05-23 16:48:00,
2013-05-23 12:50:00,68.4,65.0,29.79,SE,127,2.0,4.0,89,0.00,,,0.00,Wunderground v.1.15,2013-05-23 16:50:00,
2013-05-23 12:51:00,68.4,65.0,29.79,ESE,115,2.0,4.0,89,0.00,,,0.00,Wunderground v.1.15,2013-05-23 16:51:00,
2013-05-23 12:53:00,68.4,65.0,29.78,South,171,3.0,4.0,89,0.00,,,0.00,Wunderground v.1.15,2013-05-23 16:53:00,
2013-05-23 12:54:00,68.4,65.0,29.78,South,171,0.0,4.0,89,0.00,,,0.00,Wunderground v.1.15,2013-05-23 16:54:00,
2013-05-23 12:55:00,68.5,65.1,29.78,WSW,245,0.0,4.0,89,0.00,,,0.00,Wunderground v.1.15,2013-05-23 16:55:00,
2013-05-23 12:58:00,68.5,64.8,29.78,South,188,2.0,4.0,88,0.00,,,0.00,Wunderground v.1.15,2013-05-23 16:58:00,
2013-05-23 12:59:00,68.6,65.2,29.78,WNW,302,2.0,2.0,89,0.00,,,0.00,Wunderground v.1.15,2013-05-23 16:59:00,
2013-05-23 13:00:00,68.6,64.9,29.78,SE,141,2.0,2.0,88,0.00,,,0.00,Wunderground v.1.15,2013-05-23 17:00:00,
2013-05-23 13:01:00,68.6,64.9,29.78,SE,141,1.0,2.0,88,0.00,,,0.00,Wunderground v.1.15,2013-05-23 17:01:00,
2013-05-23 13:03:00,68.8,65.1,29.78,SE,125,1.0,3.0,88,0.00,,,0.00,Wunderground v.1.15,2013-05-23 17:03:00,
2013-05-23 13:05:00,69.0,65.3,29.78,SSW,200,3.0,4.0,88,0.00,,,0.00,Wunderground v.1.15,2013-05-23 17:05:00,
2013-05-23 13:06:00,69.1,65.4,29.78,South,183,2.0,4.0,88,0.00,,,0.00,Wunderground v.1.15,2013-05-23 17:06:00,
2013-05-23 13:08:00,69.2,65.2,29.78,South,186,3.0,3.0,87,0.00,,,0.00,Wunderground v.1.15,2013-05-23 17:08:00,
2013-05-23 13:11:00,69.5,65.5,29.78,ESE,121,1.0,5.0,87,0.00,,,0.00,Wunderground v.1.15,2013-05-23 17:11:00,
2013-05-23 13:12:00,69.6,65.2,29.78,South,173,1.0,5.0,86,0.00,,,0.00,Wunderground v.1.15,2013-05-23 17:12:00,
2013-05-23 13:14:00,69.8,65.8,29.78,East,91,5.0,5.0,87,0.00,,,0.00,Wunderground v.1.15,2013-05-23 17:14:00,
2013-05-23 13:15:00,69.8,65.8,29.78,East,95,2.0,5.0,87,0.00,,,0.00,Wunderground v.1.15,2013-05-23 17:15:00,
2013-05-23 13:17:00,70.1,65.7,29.78,WNW,300,0.0,5.0,86,0.00,,,0.00,Wunderground v.1.15,2013-05-23 17:17:00,
2013-05-23 13:19:00,70.2,66.1,29.77,WSW,251,2.0,2.0,87,0.00,,,0.00,Wunderground v.1.15,2013-05-23 17:19:00,
2013-05-23 13:20:00,70.3,65.9,29.77,SE,138,2.0,4.0,86,0.00,,,0.00,Wunderground v.1.15,2013-05-23 17:20:00,
2013-05-23 13:21:00,70.3,65.9,29.78,SE,137,1.0,4.0,86,0.00,,,0.00,Wunderground v.1.15,2013-05-23 17:21:00,
2013-05-23 13:22:00,70.4,65.7,29.77,SE,144,2.0,4.0,85,0.00,,,0.00,Wunderground v.1.15,2013-05-23 17:22:00,
2013-05-23 13:23:00,70.4,66.0,29.78,WSW,248,2.0,4.0,86,0.00,,,0.00,Wunderground v.1.15,2013-05-23 17:23:00,
2013-05-23 13:24:00,70.5,65.8,29.78,WSW,255,1.0,4.0,85,0.00,,,0.00,Wunderground v.1.15,2013-05-23 17:24:00,
2013-05-23 13:27:00,70.5,65.4,29.78,NW,321,2.0,6.0,84,0.00,,,0.00,Wunderground v.1.15,2013-05-23 17:27:00,
2013-05-23 13:29:00,70.5,65.8,29.77,WSW,247,4.0,4.0,85,0.00,,,0.00,Wunderground v.1.15,2013-05-23 17:29:00,
2013-05-23 13:31:00,70.5,65.8,29.77,SE,126,2.0,4.0,85,0.00,,,0.00,Wunderground v.1.15,2013-05-23 17:31:00,
2013-05-23 13:32:00,70.4,65.7,29.77,SE,142,4.0,4.0,85,0.00,,,0.00,Wunderground v.1.15,2013-05-23 17:32:00,
2013-05-23 13:35:00,70.4,65.7,29.77,SW,215,3.0,7.0,85,0.00,,,0.00,Wunderground v.1.15,2013-05-23 17:35:00,
2013-05-23 13:36:00,70.4,65.7,29.77,SSE,166,1.0,7.0,85,0.00,,,0.00,Wunderground v.1.15,2013-05-23 17:36:00,
2013-05-23 13:37:00,70.4,65.7,29.77,SW,219,6.0,7.0,85,0.00,,,0.00,Wunderground v.1.15,2013-05-23 17:37:00,
2013-05-23 13:38:00,70.4,65.7,29.77,SSW,192,2.0,7.0,85,0.00,,,0.00,Wunderground v.1.15,2013-05-23 17:38:00,
2013-05-23 13:42:00,70.3,65.9,29.77,West,263,1.0,9.0,86,0.00,,,0.00,Wunderground v.1.15,2013-05-23 17:42:00,
2013-05-23 13:43:00,70.3,65.9,29.77,NW,326,5.0,9.0,86,0.00,,,0.00,Wunderground v.1.15,2013-05-23 17:43:00,
2013-05-23 13:44:00,70.3,65.9,29.76,WSW,257,1.0,9.0,86,0.00,,,0.00,Wunderground v.1.15,2013-05-23 17:44:00,
2013-05-23 13:45:00,70.3,65.9,29.77,North,355,0.0,9.0,86,0.00,,,0.00,Wunderground v.1.15,2013-05-23 17:45:00,
2013-05-23 13:48:00,70.4,66.3,29.77,SW,227,3.0,3.0,87,0.00,,,0.00,Wunderground v.1.15,2013-05-23 17:48:00,
2013-05-23 13:49:00,70.4,66.0,29.76,SSE,165,1.0,3.0,86,0.00,,,0.00,Wunderground v.1.15,2013-05-23 17:49:00,
2013-05-23 13:50:00,70.5,66.1,29.77,South,182,2.0,3.0,86,0.00,,,0.00,Wunderground v.1.15,2013-05-23 17:50:00,
2013-05-23 13:51:00,70.5,66.1,29.77,WSW,240,2.0,5.0,86,0.00,,,0.00,Wunderground v.1.15,2013-05-23 17:51:00,
2013-05-23 13:53:00,70.6,66.2,29.77,NW,308,4.0,5.0,86,0.00,,,0.00,Wunderground v.1.15,2013-05-23 17:53:00,
2013-05-23 13:55:00,70.6,66.2,29.77,West,259,0.0,5.0,86,0.00,,,0.00,Wunderground v.1.15,2013-05-23 17:55:00,
2013-05-23 13:56:00,70.7,66.3,29.77,West,259,0.0,5.0,86,0.00,,,0.00,Wunderground v.1.15,2013-05-23 17:56:00,
2013-05-23 13:57:00,70.7,66.3,29.77,West,270,1.0,5.0,86,0.00,,,0.00,Wunderground v.1.15,2013-05-23 17:57:00,
2013-05-23 14:00:00,71.0,66.6,29.77,WSW,246,2.0,3.0,86,0.00,,,0.00,Wunderground v.1.15,2013-05-23 18:00:00,
2013-05-23 14:01:00,71.0,66.3,29.77,SE,124,4.0,4.0,85,0.00,,,0.00,Wunderground v.1.15,2013-05-23 18:01:00,
2013-05-23 14:02:00,71.1,66.4,29.77,SE,124,1.0,4.0,85,0.00,,,0.00,Wunderground v.1.15,2013-05-23 18:02:00,
2013-05-23 14:03:00,71.2,66.5,29.77,NNE,30,1.0,4.0,85,0.00,,,0.00,Wunderground v.1.15,2013-05-23 18:03:00,
2013-05-23 14:06:00,71.3,66.6,29.77,South,186,3.0,4.0,85,0.00,,,0.00,Wunderground v.1.15,2013-05-23 18:06:00,
2013-05-23 14:07:00,71.3,66.6,29.77,SSE,148,1.0,4.0,85,0.00,,,0.00,Wunderground v.1.15,2013-05-23 18:07:00,
2013-05-23 14:09:00,71.3,66.2,29.77,South,180,2.0,3.0,84,0.00,,,0.00,Wunderground v.1.15,2013-05-23 18:09:00,
2013-05-23 14:11:00,71.2,66.1,29.77,WSW,241,0.0,3.0,84,0.00,,,0.00,Wunderground v.1.15,2013-05-23 18:11:00,
2013-05-23 14:12:00,71.1,66.0,29.77,NW,316,3.0,3.0,84,0.00,,,0.00,Wunderground v.1.15,2013-05-23 18:12:00,
2013-05-23 14:14:00,71.1,66.0,29.77,WNW,295,0.0,4.0,84,0.00,,,0.00,Wunderground v.1.15,2013-05-23 18:14:00,
2013-05-23 14:17:00,71.0,66.3,29.77,SSW,197,3.0,4.0,85,0.00,,,0.00,Wunderground v.1.15,2013-05-23 18:17:00,
2013-05-23 14:19:00,70.9,66.2,29.77,East,83,1.0,3.0,85,0.00,,,0.00,Wunderground v.1.15,2013-05-23 18:19:00,
2013-05-23 14:20:00,70.8,66.1,29.77,NW,315,2.0,3.0,85,0.00,,,0.00,Wunderground v.1.15,2013-05-23 18:20:00,
2013-05-23 14:23:00,70.6,65.5,29.77,NE,56,2.0,7.0,84,0.00,,,0.00,Wunderground v.1.15,2013-05-23 18:23:00,
2013-05-23 14:24:00,70.6,65.9,29.77,WSW,240,2.0,7.0,85,0.00,,,0.00,Wunderground v.1.15,2013-05-23 18:24:00,
2013-05-23 14:25:00,70.5,65.8,29.77,NNW,338,1.0,7.0,85,0.00,,,0.00,Wunderground v.1.15,2013-05-23 18:25:00,
2013-05-23 14:26:00,70.4,65.7,29.77,ENE,75,3.0,7.0,85,0.00,,,0.00,Wunderground v.1.15,2013-05-23 18:26:00,
2013-05-23 14:29:00,70.2,65.8,29.77,NE,53,2.0,2.0,86,0.00,,,0.00,Wunderground v.1.15,2013-05-23 18:29:00,
2013-05-23 14:30:00,70.1,65.7,29.77,WSW,244,4.0,5.0,86,0.00,,,0.00,Wunderground v.1.15,2013-05-23 18:30:00,
2013-05-23 14:31:00,70.1,65.7,29.77,SSW,205,0.0,5.0,86,0.00,,,0.00,Wunderground v.1.15,2013-05-23 18:31:00,
2013-05-23 14:33:00,70.0,65.6,29.77,ENE,68,1.0,5.0,86,0.00,,,0.00,Wunderground v.1.15,2013-05-23 18:33:00,
2013-05-23 14:36:00,69.9,65.5,29.77,ENE,76,1.0,5.0,86,0.00,,,0.00,Wunderground v.1.15,2013-05-23 18:36:00,
2013-05-23 14:37:00,69.8,65.4,29.77,ESE,107,3.0,5.0,86,0.00,,,0.00,Wunderground v.1.15,2013-05-23 18:37:00,
2013-05-23 14:39:00,69.7,65.3,29.77,WSW,257,2.0,2.0,86,0.00,,,0.00,Wunderground v.1.15,2013-05-23 18:39:00,
2013-05-23 14:40:00,69.7,65.3,29.76,SE,128,1.0,5.0,86,0.00,,,0.00,Wunderground v.1.15,2013-05-23 18:40:00,
2013-05-23 14:42:00,69.6,65.2,29.77,SSE,156,1.0,5.0,86,0.00,,,0.00,Wunderground v.1.15,2013-05-23 18:42:00,
2013-05-23 14:45:00,69.5,65.1,29.76,West,269,2.0,5.0,86,0.00,,,0.00,Wunderground v.1.15,2013-05-23 18:45:00,
2013-05-23 14:46:00,69.4,65.0,29.76,East,92,2.0,5.0,86,0.00,,,0.00,Wunderground v.1.15,2013-05-23 18:46:00,
2013-05-23 14:47:00,69.4,65.4,29.76,ENE,60,2.0,5.0,87,0.00,,,0.00,Wunderground v.1.15,2013-05-23 18:47:00,
2013-05-23 14:48:00,69.4,65.4,29.76,SE,130,4.0,4.0,87,0.00,,,0.00,Wunderground v.1.15,2013-05-23 18:48:00,
2013-05-23 14:50:00,69.3,65.3,29.76,NW,304,1.0,4.0,87,0.00,,,0.00,Wunderground v.1.15,2013-05-23 18:50:00,
2013-05-23 14:51:00,69.3,64.9,29.77,South,183,2.0,4.0,86,0.00,,,0.00,Wunderground v.1.15,2013-05-23 18:51:00,
2013-05-23 14:52:00,69.3,65.3,29.76,SSE,163,1.0,4.0,87,0.00,,,0.00,Wunderground v.1.15,2013-05-23 18:52:00,
2013-05-23 14:55:00,69.4,65.7,29.76,East,95,2.0,4.0,88,0.00,,,0.00,Wunderground v.1.15,2013-05-23 18:55:00,
2013-05-23 14:56:00,69.4,65.4,29.76,East,95,1.0,4.0,87,0.00,,,0.00,Wunderground v.1.15,2013-05-23 18:56:00,
2013-05-23 14:57:00,69.4,65.4,29.76,East,84,1.0,4.0,87,0.00,,,0.00,Wunderground v.1.15,2013-05-23 18:57:00,
2013-05-23 14:58:00,69.4,65.4,29.76,South,170,1.0,4.0,87,0.00,,,0.00,Wunderground v.1.15,2013-05-23 18:58:00,
2013-05-23 15:00:00,69.4,65.4,29.76,NNW,346,1.0,5.0,87,0.00,,,0.00,Wunderground v.1.15,2013-05-23 19:00:00,
2013-05-23 15:02:00,69.4,65.4,29.76,ESE,106,1.0,7.0,87,0.00,,,0.00,Wunderground v.1.15,2013-05-23 19:02:00,
2013-05-23 15:03:00,69.5,65.5,29.76,East,98,2.0,7.0,87,0.00,,,0.00,Wunderground v.1.15,2013-05-23 19:03:00,
2013-05-23 15:04:00,69.4,65.0,29.76,West,271,3.0,7.0,86,0.00,,,0.00,Wunderground v.1.15,2013-05-23 19:04:00,
2013-05-23 15:08:00,69.4,65.0,29.76,ESE,121,0.0,8.0,86,0.00,,,0.00,Wunderground v.1.15,2013-05-23 19:08:00,
2013-05-23 15:09:00,69.5,65.5,29.76,ESE,112,3.0,3.0,87,0.00,,,0.00,Wunderground v.1.15,2013-05-23 19:09:00,
2013-05-23 15:11:00,69.5,65.5,29.76,SSW,203,2.0,3.0,87,0.00,,,0.00,Wunderground v.1.15,2013-05-23 19:11:00,
2013-05-23 15:13:00,69.4,65.0,29.76,ESE,103,2.0,3.0,86,0.00,,,0.00,Wunderground v.1.15,2013-05-23 19:13:00,
2013-05-23 15:14:00,69.4,65.4,29.76,ENE,59,4.0,5.0,87,0.00,,,0.00,Wunderground v.1.15,2013-05-23 19:14:00,
2013-05-23 15:18:00,69.3,65.3,29.76,NE,50,4.0,4.0,87,0.00,,,0.00,Wunderground v.1.15,2013-05-23 19:18:00,
2013-05-23 15:19:00,69.3,65.3,29.76,South,186,5.0,5.0,87,0.00,,,0.00,Wunderground v.1.15,2013-05-23 19:19:00,
2013-05-23 15:20:00,69.3,65.3,29.76,NNE,15,1.0,5.0,87,0.00,,,0.00,Wunderground v.1.15,2013-05-23 19:20:00,
2013-05-23 15:23:00,69.2,65.2,29.76,SE,135,2.0,5.0,87,0.00,,,0.00,Wunderground v.1.15,2013-05-23 19:23:00,
2013-05-23 15:25:00,69.2,65.2,29.76,NE,51,0.0,5.0,87,0.00,,,0.00,Wunderground v.1.15,2013-05-23 19:25:00,
2013-05-23 15:27:00,69.2,65.2,29.76,ESE,109,3.0,5.0,87,0.00,,,0.00,Wunderground v.1.15,2013-05-23 19:27:00,
2013-05-23 15:30:00,69.2,65.2,29.76,WSW,244,0.0,3.0,87,0.00,,,0.00,Wunderground v.1.15,2013-05-23 19:30:00,
2013-05-23 15:33:00,69.2,65.2,29.76,SW,217,4.0,6.0,87,0.00,,,0.00,Wunderground v.1.15,2013-05-23 19:33:00,
2013-05-23 15:35:00,69.1,65.1,29.76,SW,216,4.0,6.0,87,0.00,,,0.00,Wunderground v.1.15,2013-05-23 19:35:00,
2013-05-23 15:36:00,69.0,65.0,29.76,East,85,2.0,6.0,87,0.00,,,0.00,Wunderground v.1.15,2013-05-23 19:36:00,
2013-05-23 15:37:00,69.0,65.0,29.76,East,88,6.0,8.0,87,0.00,,,0.00,Wunderground v.1.15,2013-05-23 19:37:00,
2013-05-23 15:38:00,69.0,65.0,29.76,SE,133,2.0,3.0,87,0.00,,,0.00,Wunderground v.1.15,2013-05-23 19:38:00,
2013-05-23 15:39:00,69.0,65.0,29.75,NW,304,2.0,3.0,87,0.00,,,0.00,Wunderground v.1.15,2013-05-23 19:39:00,
2013-05-23 15:40:00,68.9,64.9,29.75,SSW,196,1.0,3.0,87,0.00,,,0.00,Wunderground v.1.15,2013-05-23 19:40:00,
2013-05-23 15:43:00,69.0,65.3,29.75,East,86,0.0,5.0,88,0.00,,,0.00,Wunderground v.1.15,2013-05-23 19:43:00,
2013-05-23 15:44:00,69.1,65.4,29.75,SSE,156,1.0,5.0,88,0.00,,,0.00,Wunderground v.1.15,2013-05-23 19:44:00,
2013-05-23 15:45:00,69.1,65.1,29.75,ESE,105,3.0,5.0,87,0.00,,,0.00,Wunderground v.1.15,2013-05-23 19:45:00,
2013-05-23 15:46:00,69.2,65.2,29.75,SE,142,3.0,5.0,87,0.00,,,0.00,Wunderground v.1.15,2013-05-23 19:46:00,
2013-05-23 15:49:00,69.2,65.2,29.75,South,189,4.0,6.0,87,0.00,,,0.00,Wunderground v.1.15,2013-05-23 19:49:00,
2013-05-23 15:50:00,69.3,65.3,29.75,South,176,4.0,6.0,87,0.00,,,0.00,Wunderground v.1.15,2013-05-23 19:50:00,
2013-05-23 15:51:00,69.3,65.3,29.75,ESE,105,1.0,6.0,87,0.00,,,0.00,Wunderground v.1.15,2013-05-23 19:51:00,
2013-05-23 15:55:00,69.3,64.9,29.75,ENE,76,4.0,7.0,86,0.00,,,0.00,Wunderground v.1.15,2013-05-23 19:55:00,
2013-05-23 15:56:00,69.3,64.9,29.75,East,92,3.0,7.0,86,0.00,,,0.00,Wunderground v.1.15,2013-05-23 19:56:00,
2013-05-23 15:57:00,69.3,64.9,29.75,ESE,105,4.0,7.0,86,0.00,,,0.00,Wunderground v.1.15,2013-05-23 19:57:00,
2013-05-23 15:58:00,69.3,64.9,29.75,ESE,118,2.0,3.0,86,0.00,,,0.00,Wunderground v.1.15,2013-05-23 19:58:00,
2013-05-23 16:01:00,69.3,64.9,29.75,WNW,291,1.0,5.0,86,0.00,,,0.00,Wunderground v.1.15,2013-05-23 20:01:00,
2013-05-23 16:02:00,69.3,64.9,29.75,SE,141,4.0,5.0,86,0.00,,,0.00,Wunderground v.1.15,2013-05-23 20:02:00,
2013-05-23 16:03:00,69.3,64.9,29.75,ESE,117,0.0,7.0,86,0.00,,,0.00,Wunderground v.1.15,2013-05-23 20:03:00,
2013-05-23 16:06:00,69.3,64.9,29.75,SSW,200,7.0,7.0,86,0.00,,,0.00,Wunderground v.1.15,2013-05-23 20:06:00,
2013-05-23 16:07:00,69.2,64.8,29.74,SE,136,8.0,8.0,86,0.00,,,0.00,Wunderground v.1.15,2013-05-23 20:07:00,
2013-05-23 16:09:00,69.1,64.7,29.74,ESE,106,1.0,7.0,86,0.00,,,0.00,Wunderground v.1.15,2013-05-23 20:09:00,
2013-05-23 16:11:00,69.0,64.6,29.74,SE,140,0.0,7.0,86,0.00,,,0.00,Wunderground v.1.15,2013-05-23 20:11:00,
2013-05-23 16:12:00,69.0,64.6,29.74,SE,140,1.0,7.0,86,0.00,,,0.00,Wunderground v.1.15,2013-05-23 20:12:00,
2013-05-23 16:13:00,69.0,64.6,29.74,SE,140,0.0,7.0,86,0.00,,,0.00,Wunderground v.1.15,2013-05-23 20:13:00,
2013-05-23 16:16:00,69.0,65.0,29.74,SSW,194,1.0,7.0,87,0.00,,,0.00,Wunderground v.1.15,2013-05-23 20:16:00,
2013-05-23 16:17:00,68.9,64.9,29.74,South,182,3.0,7.0,87,0.00,,,0.00,Wunderground v.1.15,2013-05-23 20:17:00,
2013-05-23 16:18:00,68.9,64.9,29.74,ESE,122,2.0,3.0,87,0.00,,,0.00,Wunderground v.1.15,2013-05-23 20:18:00,
2013-05-23 16:19:00,68.9,64.9,29.74,East,99,2.0,3.0,87,0.00,,,0.00,Wunderground v.1.15,2013-05-23 20:19:00,
2013-05-23 16:23:00,68.7,64.7,29.74,East,98,0.0,4.0,87,0.00,,,0.00,Wunderground v.1.15,2013-05-23 20:23:00,
2013-05-23 16:24:00,68.6,64.6,29.74,NNW,327,5.0,5.0,87,0.00,,,0.00,Wunderground v.1.15,2013-05-23 20:24:00,
2013-05-23 16:25:00,68.6,64.6,29.74,North,5,2.0,5.0,87,0.00,,,0.00,Wunderground v.1.15,2013-05-23 20:25:00,
2013-05-23 16:29:00,68.3,64.6,29.74,SSW,198,3.0,3.0,88,0.00,,,0.00,Wunderground v.1.15,2013-05-23 20:29:00,
2013-05-23 16:30:00,68.3,64.6,29.74,SSE,154,5.0,5.0,88,0.00,,,0.00,Wunderground v.1.15,2013-05-23 20:30:00,
2013-05-23 16:31:00,68.2,64.5,29.75,ESE,115,2.0,6.0,88,0.00,,,0.00,Wunderground v.1.15,2013-05-23 20:31:00,
2013-05-23 16:32:00,68.2,64.5,29.75,West,279,2.0,6.0,88,0.00,,,0.00,Wunderground v.1.15,2013-05-23 20:32:00,
2013-05-23 16:35:00,68.0,64.3,29.74,East,90,5.0,9.0,88,0.00,,,0.00,Wunderground v.1.15,2013-05-23 20:35:00,
2013-05-23 16:37:00,67.9,64.2,29.74,ENE,74,4.0,9.0,88,0.00,,,0.01,Wunderground v.1.15,2013-05-23 20:37:00,
2013-05-23 16:40:00,67.6,64.2,29.74,ESE,115,1.0,3.0,89,0.15,,,0.01,Wunderground v.1.15,2013-05-23 20:40:00,
2013-05-23 16:42:00,67.4,64.4,29.74,East,91,1.0,4.0,90,0.15,,,0.02,Wunderground v.1.15,2013-05-23 20:42:00,
2013-05-23 16:43:00,67.4,64.4,29.74,East,88,2.0,4.0,90,0.15,,,0.02,Wunderground v.1.15,2013-05-23 20:43:00,
2013-05-23 16:44:00,67.3,64.3,29.74,NW,305,0.0,4.0,90,0.15,,,0.02,Wunderground v.1.15,2013-05-23 20:44:00,
2013-05-23 16:47:00,67.1,64.4,29.75,SE,130,1.0,4.0,91,0.10,,,0.03,Wunderground v.1.15,2013-05-23 20:47:00,
2013-05-23 16:49:00,66.9,64.2,29.75,ESE,110,1.0,2.0,91,0.24,,,0.04,Wunderground v.1.15,2013-05-23 20:49:00,
2013-05-23 16:51:00,66.8,64.1,29.75,SSE,163,2.0,2.0,91,0.24,,,0.04,Wunderground v.1.15,2013-05-23 20:51:00,
2013-05-23 16:54:00,66.7,64.3,29.75,ESE,114,0.0,2.0,92,0.16,,,0.05,Wunderground v.1.15,2013-05-23 20:54:00,
2013-05-23 16:56:00,66.6,64.2,29.75,SSW,211,3.0,3.0,92,0.16,,,0.05,Wunderground v.1.15,2013-05-23 20:56:00,
2013-05-23 16:57:00,66.5,64.1,29.75,SW,236,3.0,8.0,92,0.17,,,0.06,Wunderground v.1.15,2013-05-23 20:57:00,
2013-05-23 16:59:00,66.4,64.0,29.75,ESE,119,0.0,1.0,92,0.17,,,0.06,Wunderground v.1.15,2013-05-23 20:59:00,
2013-05-23 17:00:00,66.4,64.3,29.75,WSW,244,4.0,4.0,93,0.15,,,0.06,Wunderground v.1.15,2013-05-23 21:00:00,
2013-05-23 17:01:00,66.3,64.2,29.75,WSW,245,1.0,4.0,93,0.13,,,0.07,Wunderground v.1.15,2013-05-23 21:01:00,
2013-05-23 17:02:00,66.3,64.2,29.75,SSW,194,2.0,4.0,93,0.13,,,0.07,Wunderground v.1.15,2013-05-23 21:02:00,
2013-05-23 17:03:00,66.3,64.2,29.75,SW,215,1.0,4.0,93,0.13,,,0.07,Wunderground v.1.15,2013-05-23 21:03:00,
2013-05-23 17:05:00,66.2,64.1,29.76,SW,216,2.0,4.0,93,0.13,,,0.07,Wunderground v.1.15,2013-05-23 21:05:00,
2013-05-23 17:06:00,66.2,64.1,29.76,SSE,160,1.0,4.0,93,0.12,,,0.08,Wunderground v.1.15,2013-05-23 21:06:00,
2013-05-23 17:07:00,66.2,64.1,29.76,SSE,163,0.0,4.0,93,0.12,,,0.08,Wunderground v.1.15,2013-05-23 21:07:00,
2013-05-23 17:09:00,66.2,64.4,29.75,SSW,202,1.0,2.0,94,0.12,,,0.08,Wunderground v.1.15,2013-05-23 21:09:00,
2013-05-23 17:10:00,66.1,64.3,29.75,ESE,112,1.0,2.0,94,0.12,,,0.08,Wunderground v.1.15,2013-05-23 21:10:00,
2013-05-23 17:11:00,66.1,64.3,29.75,ESE,112,0.0,2.0,94,0.13,,,0.09,Wunderground v.1.15,2013-05-23 21:11:00,
2013-05-23 17:13:00,66.1,64.3,29.75,ESE,116,2.0,2.0,94,0.35,,,0.10,Wunderground v.1.15,2013-05-23 21:13:00,
2013-05-23 17:14:00,66.0,64.2,29.75,East,97,0.0,3.0,94,0.28,,,0.10,Wunderground v.1.15,2013-05-23 21:14:00,
2013-05-23 17:16:00,66.0,64.2,29.74,SSE,167,2.0,3.0,94,0.23,,,0.11,Wunderground v.1.15,2013-05-23 21:16:00,
2013-05-23 17:17:00,65.9,64.1,29.74,SE,128,0.0,3.0,94,0.20,,,0.11,Wunderground v.1.15,2013-05-23 21:17:00,
2013-05-23 17:18:00,65.9,64.1,29.74,SE,128,0.0,1.0,94,0.18,,,0.12,Wunderground v.1.15,2013-05-23 21:18:00,
2013-05-23 17:21:00,65.9,64.1,29.74,SSE,165,2.0,3.0,94,0.18,,,0.12,Wunderground v.1.15,2013-05-23 21:21:00,
2013-05-23 17:23:00,65.9,64.1,29.74,WSW,241,1.0,3.0,94,0.15,,,0.13,Wunderground v.1.15,2013-05-23 21:23:00,
2013-05-23 17:24:00,65.8,64.0,29.74,South,178,2.0,3.0,94,0.15,,,0.13,Wunderground v.1.15,2013-05-23 21:24:00,
2013-05-23 17:26:00,65.8,64.0,29.74,SE,129,0.0,4.0,94,0.13,,,0.13,Wunderground v.1.15,2013-05-23 21:26:00,
2013-05-23 17:27:00,65.8,64.0,29.73,SE,129,1.0,4.0,94,0.10,,,0.13,Wunderground v.1.15,2013-05-23 21:27:00,
2013-05-23 17:28:00,65.8,64.0,29.74,NW,312,1.0,2.0,94,0.09,,,0.13,Wunderground v.1.15,2013-05-23 21:28:00,
2013-05-23 17:29:00,65.8,64.0,29.74,NNE,15,0.0,2.0,94,0.09,,,0.13,Wunderground v.1.15,2013-05-23 21:29:00,
2013-05-23 17:32:00,65.7,64.2,29.74,ESE,109,0.0,5.0,95,0.06,,,0.13,Wunderground v.1.15,2013-05-23 21:32:00,
2013-05-23 17:33:00,65.7,64.2,29.74,ESE,109,2.0,5.0,95,0.05,,,0.13,Wunderground v.1.15,2013-05-23 21:33:00,
2013-05-23 17:34:00,65.7,64.2,29.74,SSE,163,1.0,5.0,95,0.05,,,0.13,Wunderground v.1.15,2013-05-23 21:34:00,
2013-05-23 17:36:00,65.7,64.2,29.74,South,170,2.0,5.0,95,0.04,,,0.14,Wunderground v.1.15,2013-05-23 21:36:00,
2013-05-23 17:38:00,65.6,64.1,29.74,SSE,163,1.0,1.0,95,0.04,,,0.14,Wunderground v.1.15,2013-05-23 21:38:00,
2013-05-23 17:39:00,65.6,64.1,29.74,ESE,111,5.0,5.0,95,0.04,,,0.14,Wunderground v.1.15,2013-05-23 21:39:00,
2013-05-23 17:40:00,65.6,64.1,29.74,South,176,3.0,5.0,95,0.04,,,0.14,Wunderground v.1.15,2013-05-23 21:40:00,
2013-05-23 17:41:00,65.6,64.1,29.74,SE,128,0.0,5.0,95,0.04,,,0.14,Wunderground v.1.15,2013-05-23 21:41:00,
2013-05-23 17:43:00,65.6,64.1,29.74,ESE,115,0.0,5.0,95,0.04,,,0.14,Wunderground v.1.15,2013-05-23 21:43:00,
2013-05-23 17:46:00,65.5,64.0,29.74,West,279,3.0,5.0,95,0.04,,,0.14,Wunderground v.1.15,2013-05-23 21:46:00,
2013-05-23 17:47:00,65.5,64.0,29.74,SE,136,2.0,7.0,95,0.04,,,0.14,Wunderground v.1.15,2013-05-23 21:47:00,
2013-05-23 17:51:00,65.4,63.9,29.74,SW,232,2.0,3.0,95,0.05,,,0.15,Wunderground v.1.15,2013-05-23 21:51:00,
2013-05-23 17:52:00,65.4,63.9,29.74,East,82,2.0,3.0,95,0.05,,,0.15,Wunderground v.1.15,2013-05-23 21:52:00,
2013-05-23 17:54:00,65.3,63.8,29.73,East,80,3.0,5.0,95,0.05,,,0.15,Wunderground v.1.15,2013-05-23 21:54:00,
2013-05-23 17:56:00,65.3,63.8,29.73,SSW,201,1.0,5.0,95,0.09,,,0.16,Wunderground v.1.15,2013-05-23 21:56:00,
2013-05-23 17:57:00,65.3,63.8,29.73,SSW,203,2.0,5.0,95,0.09,,,0.16,Wunderground v.1.15,2013-05-23 21:57:00,
2013-05-23 17:58:00,65.2,63.7,29.74,South,171,1.0,2.0,95,0.09,,,0.16,Wunderground v.1.15,2013-05-23 21:58:00,
2013-05-23 17:59:00,65.2,63.7,29.73,ENE,65,1.0,2.0,95,0.09,,,0.16,Wunderground v.1.15,2013-05-23 21:59:00,
2013-05-23 18:02:00,65.2,63.7,29.73,SE,135,3.0,5.0,95,0.08,,,0.16,Wunderground v.1.15,2013-05-23 22:02:00,
2013-05-23 18:03:00,65.1,63.6,29.73,ESE,122,0.0,5.0,95,0.07,,,0.16,Wunderground v.1.15,2013-05-23 22:03:00,
2013-05-23 18:06:00,65.1,63.6,29.73,SE,128,3.0,6.0,95,0.05,,,0.16,Wunderground v.1.15,2013-05-23 22:06:00,
2013-05-23 18:07:00,65.1,63.6,29.73,ESE,110,2.0,6.0,95,0.05,,,0.16,Wunderground v.1.15,2013-05-23 22:07:00,
2013-05-23 18:10:00,65.0,63.5,29.73,SSE,153,4.0,4.0,95,0.04,,,0.16,Wunderground v.1.15,2013-05-23 22:10:00,
2013-05-23 18:11:00,65.0,63.5,29.73,SE,128,1.0,4.0,95,0.04,,,0.17,Wunderground v.1.15,2013-05-23 22:11:00,
2013-05-23 18:12:00,65.0,63.5,29.73,SE,128,1.0,4.0,95,0.04,,,0.17,Wunderground v.1.15,2013-05-23 22:12:00,
2013-05-23 18:13:00,65.0,63.5,29.73,ESE,115,2.0,4.0,95,0.04,,,0.17,Wunderground v.1.15,2013-05-23 22:13:00,
2013-05-23 18:17:00,65.0,63.5,29.73,South,188,0.0,4.0,95,0.04,,,0.17,Wunderground v.1.15,2013-05-23 22:17:00,
2013-05-23 18:18:00,64.9,63.4,29.73,South,188,0.0,4.0,95,0.04,,,0.17,Wunderground v.1.15,2013-05-23 22:18:00,
2013-05-23 18:19:00,64.9,63.4,29.73,SSE,155,1.0,3.0,95,0.04,,,0.17,Wunderground v.1.15,2013-05-23 22:19:00,
2013-05-23 18:22:00,64.9,63.4,29.73,WSW,239,3.0,3.0,95,0.05,,,0.18,Wunderground v.1.15,2013-05-23 22:22:00,
2013-05-23 18:23:00,64.9,63.4,29.73,NW,325,2.0,3.0,95,0.05,,,0.18,Wunderground v.1.15,2013-05-23 22:23:00,
2013-05-23 18:24:00,64.9,63.4,29.73,SE,144,1.0,3.0,95,0.05,,,0.18,Wunderground v.1.15,2013-05-23 22:24:00,
2013-05-23 18:25:00,64.9,63.4,29.73,SE,144,0.0,3.0,95,0.05,,,0.18,Wunderground v.1.15,2013-05-23 22:25:00,
2013-05-23 18:28:00,64.9,63.4,29.73,SW,232,2.0,2.0,95,0.05,,,0.18,Wunderground v.1.15,2013-05-23 22:28:00,
2013-05-23 18:31:00,64.9,63.4,29.73,SSE,166,1.0,5.0,95,0.05,,,0.18,Wunderground v.1.15,2013-05-23 22:31:00,
2013-05-23 18:33:00,64.8,63.3,29.73,SSE,147,1.0,5.0,95,0.05,,,0.18,Wunderground v.1.15,2013-05-23 22:33:00,
2013-05-23 18:34:00,64.9,63.4,29.73,NNW,345,1.0,5.0,95,0.05,,,0.18,Wunderground v.1.15,2013-05-23 22:34:00,
2013-05-23 18:36:00,64.8,63.3,29.73,NNW,345,0.0,5.0,95,0.04,,,0.18,Wunderground v.1.15,2013-05-23 22:36:00,
2013-05-23 18:37:00,64.8,63.3,29.73,SSW,196,0.0,5.0,95,0.04,,,0.18,Wunderground v.1.15,2013-05-23 22:37:00,
2013-05-23 18:39:00,64.8,63.3,29.73,SSW,193,2.0,4.0,95,0.00,,,0.18,Wunderground v.1.15,2013-05-23 22:39:00,
2013-05-23 18:40:00,64.8,63.3,29.73,SE,127,3.0,4.0,95,0.00,,,0.18,Wunderground v.1.15,2013-05-23 22:40:00,
2013-05-23 18:44:00,64.7,63.2,29.73,ESE,114,1.0,4.0,95,0.00,,,0.18,Wunderground v.1.15,2013-05-23 22:44:00,
2013-05-23 18:45:00,64.7,63.2,29.73,ESE,114,0.0,4.0,95,0.00,,,0.18,Wunderground v.1.15,2013-05-23 22:45:00,
2013-05-23 18:48:00,64.7,63.2,29.73,SSE,150,0.0,4.0,95,0.00,,,0.18,Wunderground v.1.15,2013-05-23 22:48:00,
2013-05-23 18:50:00,64.8,63.3,29.73,ESE,115,1.0,4.0,95,0.00,,,0.18,Wunderground v.1.15,2013-05-23 22:50:00,
2013-05-23 18:51:00,64.8,63.3,29.73,East,95,1.0,4.0,95,0.00,,,0.18,Wunderground v.1.15,2013-05-23 22:51:00,
2013-05-23 18:53:00,64.8,63.3,29.73,South,178,1.0,5.0,95,0.00,,,0.18,Wunderground v.1.15,2013-05-23 22:53:00,
2013-05-23 18:55:00,64.8,63.3,29.73,South,173,3.0,5.0,95,0.00,,,0.18,Wunderground v.1.15,2013-05-23 22:55:00,
2013-05-23 18:56:00,64.8,63.3,29.73,SW,224,4.0,5.0,95,0.00,,,0.18,Wunderground v.1.15,2013-05-23 22:56:00,
2013-05-23 18:58:00,64.7,63.2,29.73,North,5,2.0,2.0,95,0.00,,,0.18,Wunderground v.1.15,2013-05-23 22:58:00,
2013-05-23 18:59:00,64.7,63.2,29.73,ESE,115,4.0,4.0,95,0.00,,,0.18,Wunderground v.1.15,2013-05-23 22:59:00,
2013-05-23 19:02:00,64.7,63.2,29.73,ESE,123,0.0,4.0,95,0.00,,,0.18,Wunderground v.1.15,2013-05-23 23:02:00,
2013-05-23 19:03:00,64.7,63.2,29.73,SSE,164,2.0,6.0,95,0.00,,,0.18,Wunderground v.1.15,2013-05-23 23:03:00,
2013-05-23 19:04:00,64.7,63.2,29.73,SSE,153,1.0,6.0,95,0.00,,,0.18,Wunderground v.1.15,2013-05-23 23:04:00,
2013-05-23 19:06:00,64.7,63.2,29.73,ENE,67,3.0,6.0,95,0.00,,,0.18,Wunderground v.1.15,2013-05-23 23:06:00,
2013-05-23 19:09:00,64.7,63.2,29.73,East,98,1.0,2.0,95,0.00,,,0.18,Wunderground v.1.15,2013-05-23 23:09:00,
2013-05-23 19:11:00,64.7,63.2,29.73,ESE,122,3.0,3.0,95,0.00,,,0.18,Wunderground v.1.15,2013-05-23 23:11:00,
2013-05-23 19:12:00,64.7,63.2,29.73,SE,138,1.0,3.0,95,0.00,,,0.18,Wunderground v.1.15,2013-05-23 23:12:00,
2013-05-23 19:13:00,64.7,63.2,29.73,SSE,167,2.0,3.0,95,0.00,,,0.18,Wunderground v.1.15,2013-05-23 23:13:00,
2013-05-23 19:14:00,64.7,63.2,29.73,WSW,256,2.0,4.0,95,0.00,,,0.18,Wunderground v.1.15,2013-05-23 23:14:00,
2013-05-23 19:16:00,64.7,63.2,29.73,SSW,192,6.0,6.0,95,0.00,,,0.18,Wunderground v.1.15,2013-05-23 23:16:00,
2013-05-23 19:18:00,64.7,63.2,29.72,NNE,27,2.0,6.0,95,0.00,,,0.18,Wunderground v.1.15,2013-05-23 23:18:00,
2013-05-23 19:19:00,64.7,63.2,29.73,SW,233,2.0,5.0,95,0.00,,,0.18,Wunderground v.1.15,2013-05-23 23:19:00,
2013-05-23 19:20:00,64.8,63.3,29.73,SSE,163,6.0,7.0,95,0.00,,,0.18,Wunderground v.1.15,2013-05-23 23:20:00,
2013-05-23 19:22:00,64.8,63.3,29.73,ESE,118,2.0,7.0,95,0.00,,,0.18,Wunderground v.1.15,2013-05-23 23:22:00,
2013-05-23 19:23:00,64.7,63.2,29.73,SE,130,1.0,7.0,95,0.00,,,0.18,Wunderground v.1.15,2013-05-23 23:23:00,
2013-05-23 19:24:00,64.7,63.2,29.73,ENE,75,1.0,7.0,95,0.00,,,0.18,Wunderground v.1.15,2013-05-23 23:24:00,
2013-05-23 19:27:00,64.7,63.2,29.72,East,101,1.0,7.0,95,0.00,,,0.18,Wunderground v.1.15,2013-05-23 23:27:00,
2013-05-23 19:29:00,64.7,63.2,29.72,ESE,110,5.0,7.0,95,0.00,,,0.18,Wunderground v.1.15,2013-05-23 23:29:00,
2013-05-23 19:30:00,64.7,63.2,29.72,South,191,0.0,7.0,95,0.00,,,0.18,Wunderground v.1.15,2013-05-23 23:30:00,
2013-05-23 19:31:00,64.7,63.2,29.72,ENE,65,7.0,7.0,95,0.00,,,0.18,Wunderground v.1.15,2013-05-23 23:31:00,
2013-05-23 19:33:00,64.7,63.2,29.72,ENE,66,0.0,7.0,95,0.00,,,0.18,Wunderground v.1.15,2013-05-23 23:33:00,
2013-05-23 19:35:00,64.7,63.2,29.72,SE,137,2.0,7.0,95,0.00,,,0.18,Wunderground v.1.15,2013-05-23 23:35:00,
2013-05-23 19:36:00,64.7,63.2,29.72,SW,222,1.0,7.0,95,0.00,,,0.18,Wunderground v.1.15,2013-05-23 23:36:00,
2013-05-23 19:39:00,64.7,63.2,29.72,NE,45,1.0,2.0,95,0.00,,,0.18,Wunderground v.1.15,2013-05-23 23:39:00,
2013-05-23 19:41:00,64.7,62.9,29.72,East,79,2.0,4.0,94,0.00,,,0.18,Wunderground v.1.15,2013-05-23 23:41:00,
2013-05-23 19:43:00,64.6,62.8,29.72,West,263,1.0,4.0,94,0.00,,,0.18,Wunderground v.1.15,2013-05-23 23:43:00,
2013-05-23 19:44:00,64.6,62.8,29.72,South,180,0.0,4.0,94,0.00,,,0.18,Wunderground v.1.15,2013-05-23 23:44:00,
2013-05-23 19:47:00,64.6,62.8,29.72,SSW,201,3.0,4.0,94,0.00,,,0.18,Wunderground v.1.15,2013-05-23 23:47:00,
2013-05-23 19:48:00,64.6,62.8,29.72,SE,133,0.0,4.0,94,0.00,,,0.18,Wunderground v.1.15,2013-05-23 23:48:00,
2013-05-23 19:50:00,64.5,62.7,29.73,SW,223,2.0,3.0,94,0.00,,,0.18,Wunderground v.1.15,2013-05-23 23:50:00,
2013-05-23 19:51:00,64.5,62.7,29.73,SE,133,4.0,4.0,94,0.00,,,0.18,Wunderground v.1.15,2013-05-23 23:51:00,
2013-05-23 19:52:00,64.5,62.7,29.73,SSW,207,1.0,4.0,94,0.00,,,0.18,Wunderground v.1.15,2013-05-23 23:52:00,
2013-05-23 19:54:00,64.5,62.7,29.73,ESE,103,1.0,4.0,94,0.00,,,0.18,Wunderground v.1.15,2013-05-23 23:54:00,
2013-05-23 19:55:00,64.5,62.7,29.73,WSW,254,3.0,4.0,94,0.00,,,0.18,Wunderground v.1.15,2013-05-23 23:55:00,
2013-05-23 19:56:00,64.5,62.7,29.73,ESE,107,4.0,5.0,94,0.00,,,0.18,Wunderground v.1.15,2013-05-23 23:56:00,
2013-05-23 19:58:00,64.4,62.6,29.73,SSE,163,2.0,5.0,94,0.00,,,0.18,Wunderground v.1.15,2013-05-23 23:58:00,
2013-05-23 19:59:00,64.4,62.6,29.72,SSE,166,2.0,3.0,94,0.00,,,0.18,Wunderground v.1.15,2013-05-23 23:59:00,
2013-05-23 20:02:00,64.4,62.6,29.72,SSW,194,0.0,3.0,94,0.00,,,0.18,Wunderground v.1.15,2013-05-24 00:02:00,
2013-05-23 20:04:00,64.4,62.6,29.72,South,180,0.0,4.0,94,0.00,,,0.18,Wunderground v.1.15,2013-05-24 00:04:00,
2013-05-23 20:05:00,64.4,62.6,29.72,East,94,1.0,4.0,94,0.00,,,0.18,Wunderground v.1.15,2013-05-24 00:05:00,
2013-05-23 20:07:00,64.3,62.5,29.72,SE,131,3.0,7.0,94,0.00,,,0.18,Wunderground v.1.15,2013-05-24 00:07:00,
2013-05-23 20:08:00,64.3,62.5,29.72,West,263,0.0,2.0,94,0.00,,,0.18,Wunderground v.1.15,2013-05-24 00:08:00,
2013-05-23 20:09:00,64.3,62.5,29.72,SW,214,0.0,4.0,94,0.00,,,0.18,Wunderground v.1.15,2013-05-24 00:09:00,
2013-05-23 20:12:00,64.3,62.5,29.72,SE,143,2.0,4.0,94,0.00,,,0.18,Wunderground v.1.15,2013-05-24 00:12:00,
2013-05-23 20:13:00,64.3,62.5,29.72,SE,143,0.0,4.0,94,0.00,,,0.18,Wunderground v.1.15,2013-05-24 00:13:00,
2013-05-23 20:14:00,64.3,62.5,29.72,North,5,2.0,4.0,94,0.00,,,0.18,Wunderground v.1.15,2013-05-24 00:14:00,
2013-05-23 20:15:00,64.2,62.4,29.72,SE,129,2.0,4.0,94,0.00,,,0.18,Wunderground v.1.15,2013-05-24 00:15:00,
2013-05-23 20:16:00,64.2,62.4,29.72,SSE,155,2.0,4.0,94,0.00,,,0.18,Wunderground v.1.15,2013-05-24 00:16:00,
2013-05-23 20:19:00,64.2,62.4,29.72,SSE,154,1.0,2.0,94,0.00,,,0.18,Wunderground v.1.15,2013-05-24 00:19:00,
2013-05-23 20:20:00,64.2,62.4,29.72,SSW,192,0.0,3.0,94,0.00,,,0.18,Wunderground v.1.15,2013-05-24 00:20:00,
2013-05-23 20:22:00,64.2,62.4,29.72,SE,134,2.0,4.0,94,0.00,,,0.18,Wunderground v.1.15,2013-05-24 00:22:00,
2013-05-23 20:23:00,64.2,62.4,29.72,SE,133,1.0,4.0,94,0.00,,,0.18,Wunderground v.1.15,2013-05-24 00:23:00,
2013-05-23 20:25:00,64.1,62.3,29.72,WNW,301,1.0,4.0,94,0.00,,,0.18,Wunderground v.1.15,2013-05-24 00:25:00,
2013-05-23 20:26:00,64.1,62.3,29.72,ENE,70,3.0,4.0,94,0.00,,,0.18,Wunderground v.1.15,2013-05-24 00:26:00,
2013-05-23 20:27:00,64.1,62.3,29.72,NW,308,1.0,4.0,94,0.00,,,0.18,Wunderground v.1.15,2013-05-24 00:27:00,
2013-05-23 20:28:00,64.1,62.3,29.72,NW,307,0.0,4.0,94,0.00,,,0.18,Wunderground v.1.15,2013-05-24 00:28:00,
2013-05-23 20:29:00,64.1,62.3,29.72,NW,308,1.0,2.0,94,0.00,,,0.18,Wunderground v.1.15,2013-05-24 00:29:00,
2013-05-23 20:30:00,64.1,62.3,29.72,East,79,2.0,2.0,94,0.00,,,0.18,Wunderground v.1.15,2013-05-24 00:30:00,
2013-05-23 20:32:00,64.0,62.2,29.72,SW,229,8.0,8.0,94,0.00,,,0.18,Wunderground v.1.15,2013-05-24 00:32:00,
2013-05-23 20:34:00,64.0,62.2,29.72,SW,216,4.0,8.0,94,0.00,,,0.18,Wunderground v.1.15,2013-05-24 00:34:00,
2013-05-23 20:35:00,64.0,62.2,29.72,SSW,205,0.0,8.0,94,0.00,,,0.18,Wunderground v.1.15,2013-05-24 00:35:00,
2013-05-23 20:38:00,64.1,62.3,29.72,ESE,115,1.0,2.0,94,0.00,,,0.18,Wunderground v.1.15,2013-05-24 00:38:00,
2013-05-23 20:39:00,64.1,62.3,29.72,SSE,147,0.0,2.0,94,0.00,,,0.18,Wunderground v.1.15,2013-05-24 00:39:00,
2013-05-23 20:40:00,64.0,62.2,29.72,SSE,147,1.0,2.0,94,0.00,,,0.18,Wunderground v.1.15,2013-05-24 00:40:00,
2013-05-23 20:41:00,64.0,62.2,29.72,ENE,70,2.0,2.0,94,0.00,,,0.18,Wunderground v.1.15,2013-05-24 00:41:00,
2013-05-23 20:45:00,64.0,62.2,29.72,SSW,210,4.0,7.0,94,0.00,,,0.18,Wunderground v.1.15,2013-05-24 00:45:00,
2013-05-23 20:46:00,64.0,62.2,29.73,East,98,2.0,7.0,94,0.00,,,0.18,Wunderground v.1.15,2013-05-24 00:46:00,
2013-05-23 20:47:00,64.0,62.2,29.73,ESE,119,3.0,7.0,94,0.00,,,0.18,Wunderground v.1.15,2013-05-24 00:47:00,
2013-05-23 20:50:00,64.0,62.2,29.72,SE,126,4.0,6.0,94,0.00,,,0.18,Wunderground v.1.15,2013-05-24 00:50:00,
2013-05-23 20:51:00,64.0,62.2,29.73,SSW,204,1.0,6.0,94,0.00,,,0.18,Wunderground v.1.15,2013-05-24 00:51:00,
2013-05-23 20:52:00,64.0,62.2,29.72,NE,40,0.0,6.0,94,0.00,,,0.18,Wunderground v.1.15,2013-05-24 00:52:00,
2013-05-23 20:53:00,64.0,62.2,29.72,SSE,165,1.0,6.0,94,0.00,,,0.18,Wunderground v.1.15,2013-05-24 00:53:00,
2013-05-23 20:54:00,64.0,62.2,29.72,SSW,193,2.0,6.0,94,0.00,,,0.18,Wunderground v.1.15,2013-05-24 00:54:00,
2013-05-23 20:56:00,64.0,62.2,29.72,SE,132,0.0,6.0,94,0.00,,,0.18,Wunderground v.1.15,2013-05-24 00:56:00,
2013-05-23 20:57:00,63.9,62.1,29.72,East,98,1.0,6.0,94,0.00,,,0.18,Wunderground v.1.15,2013-05-24 00:57:00,
2013-05-23 20:59:00,63.9,62.1,29.72,SW,224,2.0,2.0,94,0.00,,,0.18,Wunderground v.1.15,2013-05-24 00:59:00,
2013-05-23 21:00:00,63.9,62.1,29.72,SW,221,3.0,3.0,94,0.00,,,0.18,Wunderground v.1.15,2013-05-24 01:00:00,
2013-05-23 21:02:00,63.9,62.1,29.72,South,181,3.0,6.0,94,0.00,,,0.18,Wunderground v.1.15,2013-05-24 01:02:00,
2013-05-23 21:03:00,63.9,62.1,29.72,East,89,2.0,6.0,94,0.00,,,0.18,Wunderground v.1.15,2013-05-24 01:03:00,
2013-05-23 21:04:00,63.9,62.1,29.72,ESE,122,1.0,6.0,94,0.00,,,0.18,Wunderground v.1.15,2013-05-24 01:04:00,
2013-05-23 21:07:00,63.9,62.1,29.72,SSE,165,0.0,6.0,94,0.00,,,0.18,Wunderground v.1.15,2013-05-24 01:07:00,
2013-05-23 21:09:00,63.9,62.1,29.72,SE,133,3.0,3.0,94,0.00,,,0.18,Wunderground v.1.15,2013-05-24 01:09:00,
2013-05-23 21:10:00,63.9,62.1,29.72,North,351,2.0,5.0,94,0.00,,,0.18,Wunderground v.1.15,2013-05-24 01:10:00,
2013-05-23 21:12:00,63.8,62.0,29.72,SSE,149,0.0,5.0,94,0.00,,,0.18,Wunderground v.1.15,2013-05-24 01:12:00,
2013-05-23 21:14:00,63.8,62.0,29.72,ESE,119,3.0,5.0,94,0.00,,,0.18,Wunderground v.1.15,2013-05-24 01:14:00,
2013-05-23 21:15:00,63.8,62.0,29.72,SE,127,0.0,5.0,94,0.00,,,0.18,Wunderground v.1.15,2013-05-24 01:15:00,
2013-05-23 21:16:00,63.8,62.0,29.72,South,186,1.0,5.0,94,0.00,,,0.18,Wunderground v.1.15,2013-05-24 01:16:00,
2013-05-23 21:19:00,63.8,62.0,29.72,East,93,3.0,3.0,94,0.00,,,0.18,Wunderground v.1.15,2013-05-24 01:19:00,
2013-05-23 21:20:00,63.8,62.0,29.72,SSW,195,4.0,4.0,94,0.00,,,0.18,Wunderground v.1.15,2013-05-24 01:20:00,
2013-05-23 21:21:00,63.9,62.1,29.72,WNW,284,0.0,4.0,94,0.00,,,0.18,Wunderground v.1.15,2013-05-24 01:21:00,
2013-05-23 21:23:00,63.9,62.1,29.72,ESE,102,0.0,4.0,94,0.00,,,0.18,Wunderground v.1.15,2013-05-24 01:23:00,
2013-05-23 21:24:00,63.9,62.1,29.72,SW,236,1.0,4.0,94,0.00,,,0.18,Wunderground v.1.15,2013-05-24 01:24:00,
2013-05-23 21:26:00,63.9,62.1,29.72,SSE,149,1.0,4.0,94,0.00,,,0.18,Wunderground v.1.15,2013-05-24 01:26:00,
2013-05-23 21:27:00,63.9,62.1,29.72,SSE,148,3.0,4.0,94,0.00,,,0.18,Wunderground v.1.15,2013-05-24 01:27:00,
2013-05-23 21:28:00,63.9,62.1,29.72,South,178,1.0,4.0,94,0.00,,,0.18,Wunderground v.1.15,2013-05-24 01:28:00,
2013-05-23 21:31:00,63.9,62.1,29.72,WNW,282,2.0,5.0,94,0.00,,,0.18,Wunderground v.1.15,2013-05-24 01:31:00,
2013-05-23 21:32:00,63.9,62.1,29.72,South,182,0.0,5.0,94,0.00,,,0.18,Wunderground v.1.15,2013-05-24 01:32:00,
2013-05-23 21:34:00,63.9,62.1,29.72,SSW,204,1.0,5.0,94,0.00,,,0.18,Wunderground v.1.15,2013-05-24 01:34:00,
2013-05-23 21:35:00,63.9,62.1,29.72,SSE,163,4.0,5.0,94,0.00,,,0.18,Wunderground v.1.15,2013-05-24 01:35:00,
2013-05-23 21:36:00,63.9,62.1,29.72,SW,227,4.0,5.0,94,0.00,,,0.18,Wunderground v.1.15,2013-05-24 01:36:00,
2013-05-23 21:37:00,63.9,62.1,29.72,SSE,158,1.0,5.0,94,0.00,,,0.18,Wunderground v.1.15,2013-05-24 01:37:00,
2013-05-23 21:39:00,63.9,62.1,29.72,SE,146,3.0,3.0,94,0.00,,,0.18,Wunderground v.1.15,2013-05-24 01:39:00,
2013-05-23 21:41:00,64.0,62.2,29.72,ENE,74,5.0,5.0,94,0.00,,,0.18,Wunderground v.1.15,2013-05-24 01:41:00,
2013-05-23 21:42:00,64.0,62.2,29.72,ENE,67,1.0,6.0,94,0.00,,,0.18,Wunderground v.1.15,2013-05-24 01:42:00,
2013-05-23 21:43:00,64.0,62.2,29.72,ESE,114,2.0,6.0,94,0.00,,,0.18,Wunderground v.1.15,2013-05-24 01:43:00,
2013-05-23 21:45:00,64.0,62.2,29.72,NE,51,2.0,6.0,94,0.00,,,0.18,Wunderground v.1.15,2013-05-24 01:45:00,
2013-05-23 21:47:00,64.0,62.2,29.72,WSW,242,3.0,6.0,94,0.00,,,0.18,Wunderground v.1.15,2013-05-24 01:47:00,
2013-05-23 21:48:00,64.0,62.2,29.72,SW,229,1.0,2.0,94,0.00,,,0.18,Wunderground v.1.15,2013-05-24 01:48:00,
2013-05-23 21:49:00,64.0,62.2,29.72,NE,39,1.0,3.0,94,0.00,,,0.18,Wunderground v.1.15,2013-05-24 01:49:00,
2013-05-23 21:51:00,64.0,62.2,29.72,SE,128,2.0,3.0,94,0.00,,,0.18,Wunderground v.1.15,2013-05-24 01:51:00,
2013-05-23 21:52:00,64.0,62.2,29.72,WSW,255,5.0,6.0,94,0.00,,,0.18,Wunderground v.1.15,2013-05-24 01:52:00,
2013-05-23 21:54:00,64.1,62.3,29.72,ENE,76,3.0,6.0,94,0.00,,,0.18,Wunderground v.1.15,2013-05-24 01:54:00,
2013-05-23 21:55:00,64.0,62.2,29.72,SSE,161,2.0,6.0,94,0.00,,,0.18,Wunderground v.1.15,2013-05-24 01:55:00,
2013-05-23 21:56:00,64.1,62.3,29.72,SSE,165,3.0,6.0,94,0.00,,,0.18,Wunderground v.1.15,2013-05-24 01:56:00,
2013-05-23 21:59:00,64.1,62.3,29.72,SE,128,3.0,3.0,94,0.00,,,0.18,Wunderground v.1.15,2013-05-24 01:59:00,
2013-05-23 22:00:00,64.1,62.3,29.72,SW,223,2.0,3.0,94,0.00,,,0.18,Wunderground v.1.15,2013-05-24 02:00:00,
2013-05-23 22:01:00,64.1,62.3,29.72,South,184,9.0,9.0,94,0.00,,,0.18,Wunderground v.1.15,2013-05-24 02:01:00,
2013-05-23 22:02:00,64.1,62.3,29.72,East,95,6.0,9.0,94,0.00,,,0.18,Wunderground v.1.15,2013-05-24 02:02:00,
2013-05-23 22:06:00,64.2,62.4,29.72,SE,142,1.0,9.0,94,0.00,,,0.18,Wunderground v.1.15,2013-05-24 02:06:00,
2013-05-23 22:08:00,64.2,62.4,29.72,SSE,147,6.0,6.0,94,0.00,,,0.18,Wunderground v.1.15,2013-05-24 02:08:00,
2013-05-23 22:09:00,64.2,62.4,29.72,SE,141,1.0,6.0,94,0.00,,,0.18,Wunderground v.1.15,2013-05-24 02:09:00,
2013-05-23 22:11:00,64.2,62.4,29.72,SW,221,0.0,6.0,94,0.00,,,0.18,Wunderground v.1.15,2013-05-24 02:11:00,
2013-05-23 22:12:00,64.2,62.4,29.72,SW,221,0.0,6.0,94,0.00,,,0.18,Wunderground v.1.15,2013-05-24 02:12:00,
2013-05-23 22:14:00,64.2,62.4,29.71,SW,228,4.0,6.0,94,0.00,,,0.18,Wunderground v.1.15,2013-05-24 02:14:00,
2013-05-23 22:15:00,64.2,62.4,29.71,SE,146,0.0,6.0,94,0.00,,,0.18,Wunderground v.1.15,2013-05-24 02:15:00,
2013-05-23 22:17:00,64.3,62.5,29.72,WNW,285,2.0,6.0,94,0.00,,,0.18,Wunderground v.1.15,2013-05-24 02:17:00,
2013-05-23 22:18:00,64.3,62.5,29.71,East,82,2.0,2.0,94,0.00,,,0.18,Wunderground v.1.15,2013-05-24 02:18:00,
2013-05-23 22:19:00,64.3,62.5,29.71,SW,219,0.0,3.0,94,0.00,,,0.18,Wunderground v.1.15,2013-05-24 02:19:00,
2013-05-23 22:20:00,64.3,62.5,29.71,SSE,165,4.0,6.0,94,0.00,,,0.18,Wunderground v.1.15,2013-05-24 02:20:00,
2013-05-23 22:21:00,64.3,62.5,29.71,South,173,0.0,6.0,94,0.00,,,0.18,Wunderground v.1.15,2013-05-24 02:21:00,
2013-05-23 22:23:00,64.3,62.5,29.71,SE,137,5.0,6.0,94,0.00,,,0.18,Wunderground v.1.15,2013-05-24 02:23:00,
2013-05-23 22:25:00,64.3,62.5,29.71,South,175,2.0,6.0,94,0.00,,,0.18,Wunderground v.1.15,2013-05-24 02:25:00,
2013-05-23 22:26:00,64.3,62.5,29.71,SSE,156,0.0,6.0,94,0.00,,,0.18,Wunderground v.1.15,2013-05-24 02:26:00,
2013-05-23 22:27:00,64.3,62.5,29.71,NE,42,4.0,6.0,94,0.00,,,0.18,Wunderground v.1.15,2013-05-24 02:27:00,
2013-05-23 22:28:00,64.3,62.5,29.71,ENE,71,2.0,2.0,94,0.00,,,0.18,Wunderground v.1.15,2013-05-24 02:28:00,
2013-05-23 22:29:00,64.3,62.5,29.71,ENE,70,0.0,2.0,94,0.00,,,0.18,Wunderground v.1.15,2013-05-24 02:29:00,
2013-05-23 22:31:00,64.3,62.5,29.71,WNW,291,3.0,3.0,94,0.00,,,0.18,Wunderground v.1.15,2013-05-24 02:31:00,
2013-05-23 22:32:00,64.3,62.5,29.72,South,190,1.0,3.0,94,0.00,,,0.18,Wunderground v.1.15,2013-05-24 02:32:00,
2013-05-23 22:33:00,64.3,62.5,29.71,SW,214,1.0,3.0,94,0.00,,,0.18,Wunderground v.1.15,2013-05-24 02:33:00,
2013-05-23 22:34:00,64.3,62.8,29.72,SE,144,3.0,3.0,95,0.00,,,0.18,Wunderground v.1.15,2013-05-24 02:34:00,
2013-05-23 22:35:00,64.3,62.8,29.72,West,264,2.0,5.0,95,0.00,,,0.18,Wunderground v.1.15,2013-05-24 02:35:00,
2013-05-23 22:37:00,64.3,62.8,29.72,South,188,1.0,5.0,95,0.00,,,0.18,Wunderground v.1.15,2013-05-24 02:37:00,
2013-05-23 22:38:00,64.3,62.8,29.72,SW,230,0.0,2.0,95,0.00,,,0.18,Wunderground v.1.15,2013-05-24 02:38:00,
2013-05-23 22:40:00,64.4,62.9,29.72,ESE,123,4.0,4.0,95,0.00,,,0.18,Wunderground v.1.15,2013-05-24 02:40:00,
2013-05-23 22:41:00,64.4,62.9,29.72,NNE,20,1.0,4.0,95,0.00,,,0.18,Wunderground v.1.15,2013-05-24 02:41:00,
2013-05-23 22:44:00,64.4,62.6,29.72,West,259,0.0,4.0,94,0.00,,,0.18,Wunderground v.1.15,2013-05-24 02:44:00,
2013-05-23 22:45:00,64.4,62.6,29.72,West,259,1.0,4.0,94,0.00,,,0.18,Wunderground v.1.15,2013-05-24 02:45:00,
2013-05-23 22:46:00,64.4,62.6,29.72,South,169,1.0,4.0,94,0.00,,,0.18,Wunderground v.1.15,2013-05-24 02:46:00,
2013-05-23 22:48:00,64.4,62.6,29.72,South,179,0.0,1.0,94,0.00,,,0.18,Wunderground v.1.15,2013-05-24 02:48:00,
2013-05-23 22:50:00,64.4,62.6,29.71,NNW,327,1.0,2.0,94,0.00,,,0.18,Wunderground v.1.15,2013-05-24 02:50:00,
2013-05-23 22:51:00,64.4,62.6,29.71,NNW,327,0.0,2.0,94,0.00,,,0.18,Wunderground v.1.15,2013-05-24 02:51:00,
2013-05-23 22:53:00,64.4,62.6,29.71,NNW,329,0.0,2.0,94,0.00,,,0.18,Wunderground v.1.15,2013-05-24 02:53:00,
2013-05-23 22:54:00,64.4,62.6,29.71,NE,35,0.0,2.0,94,0.00,,,0.18,Wunderground v.1.15,2013-05-24 02:54:00,
2013-05-23 22:55:00,64.4,62.6,29.71,NE,35,0.0,2.0,94,0.00,,,0.18,Wunderground v.1.15,2013-05-24 02:55:00,
2013-05-23 22:58:00,64.4,62.9,29.71,NNE,13,0.0,2.0,95,0.00,,,0.18,Wunderground v.1.15,2013-05-24 02:58:00,
2013-05-23 22:59:00,64.5,62.7,29.71,SW,232,1.0,5.0,94,0.00,,,0.18,Wunderground v.1.15,2013-05-24 02:59:00,
2013-05-23 23:03:00,64.4,62.6,29.71,SSE,165,0.0,5.0,94,0.00,,,0.18,Wunderground v.1.15,2013-05-24 03:03:00,
2013-05-23 23:04:00,64.4,62.6,29.71,SSE,165,1.0,5.0,94,0.00,,,0.18,Wunderground v.1.15,2013-05-24 03:04:00,
2013-05-23 23:05:00,64.4,62.6,29.71,SSE,165,0.0,5.0,94,0.00,,,0.18,Wunderground v.1.15,2013-05-24 03:05:00,
2013-05-23 23:07:00,64.4,62.9,29.71,East,82,0.0,5.0,95,0.00,,,0.18,Wunderground v.1.15,2013-05-24 03:07:00,
2013-05-23 23:09:00,64.4,62.9,29.71,WSW,249,0.0,4.0,95,0.00,,,0.18,Wunderground v.1.15,2013-05-24 03:09:00,
2013-05-23 23:10:00,64.4,62.9,29.71,WSW,249,0.0,4.0,95,0.00,,,0.18,Wunderground v.1.15,2013-05-24 03:10:00,
2013-05-23 23:11:00,64.4,62.9,29.70,WSW,249,0.0,4.0,95,0.00,,,0.18,Wunderground v.1.15,2013-05-24 03:11:00,
2013-05-23 23:12:00,64.4,62.9,29.70,SE,146,0.0,4.0,95,0.00,,,0.18,Wunderground v.1.15,2013-05-24 03:12:00,
2013-05-23 23:16:00,64.4,62.9,29.70,NE,51,2.0,4.0,95,0.00,,,0.18,Wunderground v.1.15,2013-05-24 03:16:00,
2013-05-23 23:17:00,64.4,62.9,29.71,SSE,163,0.0,4.0,95,0.00,,,0.18,Wunderground v.1.15,2013-05-24 03:17:00,
2013-05-23 23:19:00,64.4,62.9,29.71,SSW,213,0.0,2.0,95,0.00,,,0.18,Wunderground v.1.15,2013-05-24 03:19:00,
2013-05-23 23:20:00,64.4,62.9,29.71,WNW,294,1.0,2.0,95,0.00,,,0.18,Wunderground v.1.15,2013-05-24 03:20:00,
2013-05-23 23:21:00,64.5,63.0,29.70,ESE,111,1.0,2.0,95,0.00,,,0.18,Wunderground v.1.15,2013-05-24 03:21:00,
2013-05-23 23:22:00,64.5,63.0,29.70,WSW,252,1.0,5.0,95,0.00,,,0.18,Wunderground v.1.15,2013-05-24 03:22:00,
2013-05-23 23:24:00,64.5,63.0,29.70,SSE,163,1.0,5.0,95,0.00,,,0.18,Wunderground v.1.15,2013-05-24 03:24:00,
2013-05-23 23:25:00,64.5,63.0,29.70,SSE,165,1.0,5.0,95,0.00,,,0.18,Wunderground v.1.15,2013-05-24 03:25:00,
2013-05-23 23:26:00,64.5,63.0,29.70,South,186,2.0,5.0,95,0.00,,,0.18,Wunderground v.1.15,2013-05-24 03:26:00,
2013-05-23 23:27:00,64.5,63.0,29.70,SSW,192,1.0,5.0,95,0.00,,,0.18,Wunderground v.1.15,2013-05-24 03:27:00,
2013-05-23 23:30:00,64.5,63.0,29.70,SE,133,2.0,3.0,95,0.00,,,0.18,Wunderground v.1.15,2013-05-24 03:30:00,
2013-05-23 23:31:00,64.5,63.0,29.70,SSW,210,5.0,5.0,95,0.00,,,0.18,Wunderground v.1.15,2013-05-24 03:31:00,
2013-05-23 23:32:00,64.5,63.0,29.70,ESE,115,2.0,5.0,95,0.00,,,0.18,Wunderground v.1.15,2013-05-24 03:32:00,
2013-05-23 23:36:00,64.6,63.1,29.70,SSW,192,0.0,5.0,95,0.00,,,0.18,Wunderground v.1.15,2013-05-24 03:36:00,
2013-05-23 23:37:00,64.6,63.1,29.70,SE,132,1.0,5.0,95,0.00,,,0.18,Wunderground v.1.15,2013-05-24 03:37:00,
2013-05-23 23:38:00,64.6,63.1,29.70,NNW,332,1.0,2.0,95,0.00,,,0.18,Wunderground v.1.15,2013-05-24 03:38:00,
2013-05-23 23:39:00,64.6,63.1,29.70,WSW,250,1.0,2.0,95,0.00,,,0.18,Wunderground v.1.15,2013-05-24 03:39:00,
2013-05-23 23:42:00,64.6,63.1,29.69,East,82,0.0,4.0,95,0.00,,,0.18,Wunderground v.1.15,2013-05-24 03:42:00,
2013-05-23 23:43:00,64.6,63.1,29.69,North,5,1.0,4.0,95,0.00,,,0.18,Wunderground v.1.15,2013-05-24 03:43:00,
2013-05-23 23:44:00,64.6,63.1,29.70,SW,220,1.0,4.0,95,0.00,,,0.18,Wunderground v.1.15,2013-05-24 03:44:00,
2013-05-23 23:45:00,64.6,63.1,29.70,SW,220,0.0,4.0,95,0.00,,,0.18,Wunderground v.1.15,2013-05-24 03:45:00,
2013-05-23 23:48:00,64.5,62.7,29.69,NNW,331,1.0,4.0,94,0.00,,,0.18,Wunderground v.1.15,2013-05-24 03:48:00,
2013-05-23 23:49:00,64.5,62.7,29.70,NE,38,1.0,4.0,94,0.00,,,0.18,Wunderground v.1.15,2013-05-24 03:49:00,
2013-05-23 23:50:00,64.5,62.7,29.70,SSE,165,2.0,4.0,94,0.00,,,0.18,Wunderground v.1.15,2013-05-24 03:50:00,
2013-05-23 23:51:00,64.6,62.8,29.70,SE,138,2.0,4.0,94,0.00,,,0.18,Wunderground v.1.15,2013-05-24 03:51:00,
2013-05-23 23:52:00,64.5,62.7,29.70,SSE,160,1.0,4.0,94,0.00,,,0.18,Wunderground v.1.15,2013-05-24 03:52:00,
2013-05-23 23:54:00,64.5,62.7,29.70,South,187,5.0,5.0,94,0.00,,,0.18,Wunderground v.1.15,2013-05-24 03:54:00,
2013-05-23 23:55:00,64.5,62.7,29.70,SSW,202,0.0,5.0,94,0.00,,,0.18,Wunderground v.1.15,2013-05-24 03:55:00,
2013-05-23 23:57:00,64.5,62.7,29.70,SE,145,2.0,6.0,94,0.00,,,0.18,Wunderground v.1.15,2013-05-24 03:57:00,